AIC1 VIDP-YSSY

Flight info

Callsign AIC1
Flight time N/A
Altitude 29000
Route AKRIB7E AKRIB Z16 BULDI W19 BPL/N0530F250 J3 HIA/N0538F310 W20 MMV/N0547F280 A465 ANSUL/N0540F300 A465 KAT/N0543F290 N640 EKASU/N0539F310 N640 ELATI N509 TATOD/N0532F330 N509 DECEM/N0527F350 N509 PD T21 WENER/N0512F370 T21 LEC J141 PKS/N0476F190 W440 AKMIR W113 ODALE
Aircraft B744/H-SDE3FGHIM1M2RWXY/LB1

Departure

Time 2026-05-05 17:34
Airport Indira Gandhi International Airport (VIDP)

Arrival

Time N/A
Airport Sydney Kingsford Smith International Airport (YSSY)
Time Latitude Longitude Altitude Speed Heading
2026-05-05 17:32 28.56753 77.11395 790 ft 0 kts 83°
2026-05-05 17:32 28.56753 77.11397 790 ft 1 kts 83°
2026-05-05 17:32 28.56755 77.11417 790 ft 3 kts 78°
2026-05-05 17:33 28.56777 77.11439 790 ft 9 kts 36°
2026-05-05 17:33 28.56859 77.11486 790 ft 16 kts 339°
2026-05-05 17:33 28.56943 77.11366 790 ft 25 kts 310°
2026-05-05 17:33 28.56971 77.11089 790 ft 64 kts 274°
2026-05-05 17:34 28.57001 77.10271 790 ft 143 kts 270°
2026-05-05 17:34 28.57024 77.08869 816 ft 211 kts 270°
2026-05-05 17:34 28.57071 77.07140 1505 ft 218 kts 272°
2026-05-05 17:34 28.57361 77.05368 2039 ft 241 kts 288°
2026-05-05 17:35 28.58149 77.03562 2386 ft 268 kts 301°
2026-05-05 17:35 28.59158 77.01739 2919 ft 274 kts 296°
2026-05-05 17:35 28.59809 76.99694 3581 ft 277 kts 283°
2026-05-05 17:35 28.60123 76.97545 4353 ft 275 kts 280°
2026-05-05 17:36 28.60390 76.95369 5015 ft 277 kts 278°
2026-05-05 17:36 28.60620 76.93194 5705 ft 277 kts 278°
2026-05-05 17:36 28.60842 76.91011 6406 ft 276 kts 278°
2026-05-05 17:36 28.60896 76.88852 7149 ft 275 kts 266°
2026-05-05 17:37 28.60465 76.86748 7825 ft 277 kts 252°
2026-05-05 17:37 28.59555 76.84791 8375 ft 284 kts 238°
2026-05-05 17:37 28.58218 76.83102 9059 ft 289 kts 226°
2026-05-05 17:37 28.56592 76.81722 9793 ft 296 kts 213°
2026-05-05 17:38 28.54682 76.80798 10645 ft 299 kts 200°
2026-05-05 17:38 28.52642 76.80424 11584 ft 298 kts 187°
2026-05-05 17:38 28.50555 76.80561 12324 ft 303 kts 176°
2026-05-05 17:38 28.48464 76.80994 12904 ft 310 kts 172°
2026-05-05 17:39 28.46325 76.81530 13412 ft 319 kts 170°
2026-05-05 17:39 28.44152 76.82109 13922 ft 327 kts 171°
2026-05-05 17:39 28.41901 76.82639 14427 ft 335 kts 172°
2026-05-05 17:39 28.39573 76.83132 14932 ft 343 kts 172°
2026-05-05 17:40 28.37201 76.83623 15440 ft 352 kts 172°
2026-05-05 17:40 28.34767 76.84131 15945 ft 360 kts 172°
2026-05-05 17:40 28.32279 76.84654 16449 ft 367 kts 172°
2026-05-05 17:40 28.29719 76.84991 16950 ft 372 kts 181°
2026-05-05 17:41 28.27122 76.84938 17453 ft 376 kts 186°
2026-05-05 17:41 28.24486 76.84700 17958 ft 382 kts 188°
2026-05-05 17:41 28.21823 76.84429 18458 ft 388 kts 187°
2026-05-05 17:41 28.19091 76.84203 18844 ft 398 kts 186°
2026-05-05 17:42 28.16303 76.84017 19221 ft 407 kts 186°
2026-05-05 17:42 28.13424 76.83849 19481 ft 420 kts 185°
2026-05-05 17:42 28.10463 76.83682 19737 ft 433 kts 185°
2026-05-05 17:42 28.07396 76.83511 19994 ft 446 kts 185°
2026-05-05 17:43 28.04293 76.83338 20245 ft 458 kts 185°
2026-05-05 17:43 28.01031 76.83157 20502 ft 470 kts 185°
2026-05-05 17:43 27.97761 76.82977 20753 ft 481 kts 185°
2026-05-05 17:43 27.94384 76.82790 21006 ft 492 kts 185°
2026-05-05 17:44 27.90937 76.82599 21256 ft 499 kts 185°
2026-05-05 17:44 27.87444 76.82407 21508 ft 504 kts 185°
2026-05-05 17:44 27.83935 76.82215 21759 ft 507 kts 185°
2026-05-05 17:44 27.80403 76.82021 22010 ft 508 kts 185°
2026-05-05 17:45 27.76870 76.81827 22260 ft 510 kts 185°
2026-05-05 17:45 27.73315 76.81632 22512 ft 511 kts 185°
2026-05-05 17:45 27.69757 76.81435 22763 ft 513 kts 185°
2026-05-05 17:45 27.66192 76.81239 23013 ft 515 kts 185°
2026-05-05 17:46 27.62602 76.81042 23265 ft 516 kts 185°
2026-05-05 17:46 27.59004 76.80845 23516 ft 517 kts 185°
2026-05-05 17:46 27.55398 76.80648 23767 ft 519 kts 185°
2026-05-05 17:46 27.51789 76.80451 24016 ft 521 kts 185°
2026-05-05 17:47 27.48167 76.80253 24267 ft 523 kts 185°
2026-05-05 17:47 27.44561 76.80057 24516 ft 525 kts 185°
2026-05-05 17:47 27.40906 76.79922 24766 ft 526 kts 182°
2026-05-05 17:47 27.37242 76.79989 25017 ft 527 kts 180°
2026-05-05 17:48 27.33569 76.80166 25268 ft 527 kts 179°
2026-05-05 17:48 27.29908 76.80368 25518 ft 527 kts 180°
2026-05-05 17:48 27.26247 76.80556 25768 ft 527 kts 180°
2026-05-05 17:48 27.22589 76.80734 26018 ft 526 kts 180°
2026-05-05 17:49 27.18933 76.80905 26221 ft 529 kts 180°
2026-05-05 17:49 27.15218 76.81075 26288 ft 536 kts 180°
2026-05-05 17:49 27.11469 76.81245 26413 ft 542 kts 180°
2026-05-05 17:49 27.07665 76.81416 26606 ft 545 kts 180°
2026-05-05 17:50 27.03875 76.81587 26868 ft 547 kts 180°
2026-05-05 17:50 27.00059 76.81758 27224 ft 546 kts 180°
2026-05-05 17:50 26.96269 76.81927 27641 ft 544 kts 181°
2026-05-05 17:50 26.92550 76.82093 28088 ft 541 kts 181°
2026-05-05 17:51 26.88794 76.82260 28522 ft 539 kts 181°
2026-05-05 17:51 26.85049 76.82426 28770 ft 540 kts 181°
2026-05-05 17:51 26.81278 76.82593 29067 ft 540 kts 181°
2026-05-05 17:51 26.77520 76.82760 29402 ft 539 kts 181°
2026-05-05 17:52 26.73745 76.82927 29582 ft 542 kts 181°
2026-05-05 17:52 26.69972 76.83094 29790 ft 543 kts 181°
2026-05-05 17:52 26.66190 76.83262 30038 ft 543 kts 181°
2026-05-05 17:52 26.62410 76.83429 30207 ft 545 kts 181°
2026-05-05 17:53 26.58625 76.83596 30418 ft 545 kts 181°
2026-05-05 17:53 26.54827 76.83764 30692 ft 544 kts 181°
2026-05-05 17:53 26.51034 76.83931 30903 ft 544 kts 182°
2026-05-05 17:54 26.43510 76.84263 30902 ft 545 kts 182°
2026-05-05 17:54 26.35917 76.84596 30902 ft 545 kts 182°
2026-05-05 17:55 26.28316 76.84931 30902 ft 545 kts 182°
2026-05-05 17:55 26.20729 76.85264 30903 ft 545 kts 182°
2026-05-05 17:56 26.13135 76.85597 30921 ft 545 kts 182°
2026-05-05 17:56 26.05579 76.85928 30920 ft 546 kts 182°
2026-05-05 17:56 26.01785 76.86094 31091 ft 544 kts 182°
2026-05-05 17:57 25.98006 76.86260 31348 ft 543 kts 182°
2026-05-05 17:57 25.94274 76.86423 31521 ft 543 kts 182°
2026-05-05 17:57 25.90489 76.86588 31680 ft 543 kts 182°
2026-05-05 17:57 25.86704 76.86753 31880 ft 543 kts 182°
2026-05-05 17:58 25.82940 76.86917 32039 ft 543 kts 182°
2026-05-05 17:58 25.79589 76.87063 32215 ft 542 kts 182°
2026-05-05 17:58 25.75808 76.87228 32342 ft 542 kts 182°
2026-05-05 17:58 25.72062 76.87391 32509 ft 541 kts 182°
2026-05-05 17:59 25.68378 76.87551 32666 ft 540 kts 183°
2026-05-05 17:59 25.64662 76.87713 32802 ft 540 kts 183°
2026-05-05 17:59 25.60908 76.87876 32904 ft 539 kts 183°
2026-05-05 18:00 25.53390 76.88202 32917 ft 539 kts 183°
2026-05-05 18:00 25.45933 76.88525 32918 ft 539 kts 183°
2026-05-05 18:01 25.38429 76.88850 32917 ft 539 kts 183°
2026-05-05 18:01 25.30924 76.89176 32917 ft 539 kts 183°
2026-05-05 18:02 25.23428 76.89500 32917 ft 539 kts 183°
2026-05-05 18:02 25.15932 76.89823 32917 ft 539 kts 183°
2026-05-05 18:03 25.08454 76.90145 32917 ft 538 kts 183°
2026-05-05 18:03 25.00965 76.90466 32916 ft 538 kts 183°
2026-05-05 18:04 24.93465 76.90798 32916 ft 539 kts 183°
2026-05-05 18:04 24.86031 76.91126 32916 ft 538 kts 183°
2026-05-05 18:05 24.78528 76.91458 32916 ft 538 kts 183°
2026-05-05 18:05 24.71047 76.91790 32916 ft 538 kts 183°
2026-05-05 18:06 24.63556 76.92121 32916 ft 538 kts 183°
2026-05-05 18:06 24.56077 76.92450 32915 ft 537 kts 183°
2026-05-05 18:07 24.48643 76.92777 32910 ft 537 kts 183°
2026-05-05 18:07 24.41176 76.93443 32925 ft 542 kts 174°
2026-05-05 18:08 24.33858 76.95634 32911 ft 549 kts 167°
2026-05-05 18:08 24.26606 76.98343 32910 ft 551 kts 166°
2026-05-05 18:09 24.19375 77.01004 32909 ft 550 kts 166°
2026-05-05 18:09 24.12109 77.03638 32909 ft 550 kts 166°
2026-05-05 18:10 24.04812 77.06278 32909 ft 550 kts 166°
2026-05-05 18:10 23.97591 77.08887 32909 ft 549 kts 166°
2026-05-05 18:11 23.90333 77.11500 32908 ft 548 kts 167°
2026-05-05 18:11 23.83093 77.14102 32908 ft 548 kts 167°
2026-05-05 18:12 23.75887 77.16689 32908 ft 548 kts 167°
2026-05-05 18:12 23.68598 77.19303 32907 ft 548 kts 167°
2026-05-05 18:13 23.61400 77.21881 32907 ft 547 kts 167°
2026-05-05 18:13 23.54176 77.24472 32906 ft 546 kts 167°
2026-05-05 18:14 23.46932 77.27060 32906 ft 546 kts 167°
2026-05-05 18:14 23.39737 77.29626 32906 ft 546 kts 167°
2026-05-05 18:15 23.32495 77.32206 32905 ft 546 kts 167°
2026-05-05 18:15 23.26453 77.34110 32905 ft 543 kts 172°
2026-05-05 18:16 23.19052 77.35639 32906 ft 539 kts 175°
2026-05-05 18:16 23.11653 77.37020 32905 ft 537 kts 175°
2026-05-05 18:17 23.04335 77.38440 32905 ft 538 kts 175°
2026-05-05 18:17 22.96964 77.39886 32905 ft 538 kts 175°
2026-05-05 18:18 22.89601 77.41339 32906 ft 538 kts 175°
2026-05-05 18:18 22.82236 77.42791 32905 ft 537 kts 174°
2026-05-05 18:19 22.74872 77.44240 32906 ft 537 kts 175°
2026-05-05 18:19 22.67521 77.45684 32902 ft 536 kts 175°
2026-05-05 18:20 22.60167 77.47127 32900 ft 536 kts 174°
2026-05-05 18:20 22.52825 77.48566 32899 ft 535 kts 174°
2026-05-05 18:21 22.45495 77.50001 32898 ft 535 kts 174°
2026-05-05 18:21 22.38212 77.51430 32897 ft 535 kts 175°
2026-05-05 18:22 22.30886 77.52861 32896 ft 535 kts 175°
2026-05-05 18:22 22.23555 77.54290 32896 ft 535 kts 174°
2026-05-05 18:23 22.16226 77.55718 32895 ft 535 kts 174°
2026-05-05 18:23 22.08877 77.57143 32894 ft 534 kts 174°
2026-05-05 18:24 22.01555 77.58549 32892 ft 534 kts 175°
2026-05-05 18:24 21.94282 77.59945 32892 ft 534 kts 174°
2026-05-05 18:25 21.86958 77.61350 32891 ft 533 kts 174°
2026-05-05 18:25 21.79652 77.62756 32890 ft 533 kts 174°
2026-05-05 18:26 21.72341 77.64160 32890 ft 533 kts 174°
2026-05-05 18:26 21.65025 77.65559 32889 ft 534 kts 174°
2026-05-05 18:27 21.57706 77.66957 32888 ft 534 kts 174°
2026-05-05 18:27 21.50433 77.68350 32887 ft 534 kts 174°
2026-05-05 18:28 21.39451 77.70587 32886 ft 534 kts 174°
2026-05-05 18:28 21.32143 77.72073 32886 ft 534 kts 174°
2026-05-05 18:29 21.24895 77.73545 32886 ft 533 kts 173°
2026-05-05 18:29 21.17596 77.75025 32885 ft 534 kts 173°
2026-05-05 18:30 21.10290 77.76511 32885 ft 534 kts 173°
2026-05-05 18:30 21.03006 77.77988 32889 ft 534 kts 173°
2026-05-05 18:31 20.95705 77.79469 32888 ft 533 kts 173°
2026-05-05 18:31 20.88449 77.80936 32889 ft 533 kts 173°
2026-05-05 18:32 20.81168 77.82406 32888 ft 532 kts 173°
2026-05-05 18:32 20.73878 77.83876 32888 ft 532 kts 173°
2026-05-05 18:33 20.66630 77.85324 32889 ft 532 kts 173°
2026-05-05 18:33 20.59306 77.86736 32889 ft 532 kts 173°
2026-05-05 18:34 20.52025 77.88139 32889 ft 531 kts 173°
2026-05-05 18:34 20.44741 77.89543 32890 ft 531 kts 173°
2026-05-05 18:35 20.37479 77.90942 32891 ft 530 kts 173°
2026-05-05 18:35 20.30215 77.92345 32891 ft 530 kts 173°
2026-05-05 18:36 20.23009 77.93735 32892 ft 530 kts 173°
2026-05-05 18:36 20.15751 77.95132 32884 ft 530 kts 173°
2026-05-05 18:37 20.08500 77.96525 32877 ft 529 kts 173°
2026-05-05 18:37 20.01257 77.97916 32878 ft 529 kts 173°
2026-05-05 18:38 19.93992 77.99310 32880 ft 529 kts 173°
2026-05-05 18:38 19.86778 78.00692 32882 ft 529 kts 173°
2026-05-05 18:39 19.79537 78.02078 32872 ft 529 kts 173°
2026-05-05 18:39 19.72261 78.03470 32873 ft 529 kts 173°
2026-05-05 18:40 19.65021 78.04854 32874 ft 529 kts 173°
2026-05-05 18:40 19.57768 78.06239 32876 ft 529 kts 173°
2026-05-05 18:41 19.50501 78.07628 32877 ft 529 kts 173°
2026-05-05 18:41 19.43280 78.09004 32878 ft 529 kts 173°
2026-05-05 18:42 19.36027 78.10384 32880 ft 529 kts 173°
2026-05-05 18:42 19.28789 78.11760 32882 ft 529 kts 173°
2026-05-05 18:43 19.21524 78.13050 32884 ft 528 kts 175°
2026-05-05 18:43 19.14219 78.14034 32885 ft 528 kts 176°
2026-05-05 18:44 19.06936 78.15023 32888 ft 526 kts 176°
2026-05-05 18:44 18.99644 78.16028 32874 ft 529 kts 175°
2026-05-05 18:45 18.92443 78.17044 32906 ft 524 kts 176°
2026-05-05 18:45 18.85178 78.18054 32904 ft 527 kts 175°
2026-05-05 18:46 18.77924 78.19072 32898 ft 528 kts 175°
2026-05-05 18:46 18.70634 78.20088 32869 ft 528 kts 175°
2026-05-05 18:47 18.63358 78.21106 32922 ft 528 kts 175°
2026-05-05 18:47 18.56071 78.22114 32904 ft 525 kts 175°
2026-05-05 18:48 18.48801 78.23126 32907 ft 527 kts 175°
2026-05-05 18:48 18.41561 78.24133 32909 ft 527 kts 175°
2026-05-05 18:49 18.34295 78.25142 32912 ft 527 kts 175°
2026-05-05 18:49 18.26998 78.26157 32915 ft 527 kts 175°
2026-05-05 18:50 18.19715 78.27166 32918 ft 527 kts 175°
2026-05-05 18:50 18.12437 78.28173 32920 ft 527 kts 175°
2026-05-05 18:51 18.05163 78.29180 32935 ft 527 kts 175°
2026-05-05 18:51 17.97896 78.30188 32924 ft 527 kts 175°
2026-05-05 18:52 17.90668 78.31195 32927 ft 527 kts 175°
2026-05-05 18:52 17.83386 78.32209 32958 ft 529 kts 175°
2026-05-05 18:53 17.79715 78.32727 32823 ft 534 kts 174°
2026-05-05 18:53 17.76079 78.33230 33023 ft 524 kts 175°
2026-05-05 18:53 17.72434 78.33738 32891 ft 531 kts 174°
2026-05-05 18:53 17.68765 78.34247 32963 ft 530 kts 175°
2026-05-05 18:54 17.61477 78.35257 32932 ft 530 kts 175°
2026-05-05 18:54 17.54215 78.36274 32962 ft 530 kts 175°
2026-05-05 18:55 17.46927 78.37284 32917 ft 527 kts 175°
2026-05-05 18:55 17.39666 78.38291 32940 ft 526 kts 175°
2026-05-05 18:56 17.32400 78.39298 32948 ft 526 kts 175°
2026-05-05 18:56 17.25140 78.40344 32950 ft 526 kts 171°
2026-05-05 18:57 17.18157 78.42666 32965 ft 530 kts 160°
2026-05-05 18:57 17.11389 78.45757 32963 ft 531 kts 158°
2026-05-05 18:58 17.04626 78.48885 32963 ft 531 kts 158°
2026-05-05 18:58 16.97845 78.51961 32963 ft 531 kts 159°
2026-05-05 18:59 16.91109 78.55005 32961 ft 530 kts 158°
2026-05-05 18:59 16.84350 78.58068 32959 ft 530 kts 159°
2026-05-05 19:00 16.77577 78.61120 32958 ft 530 kts 158°
2026-05-05 19:00 16.70805 78.64169 32956 ft 529 kts 158°
2026-05-05 19:01 16.65180 78.66699 32954 ft 529 kts 158°
2026-05-05 19:01 16.58409 78.69749 32951 ft 529 kts 158°
2026-05-05 19:02 16.51647 78.72800 32948 ft 529 kts 158°
2026-05-05 19:02 16.44879 78.75852 32924 ft 529 kts 158°
2026-05-05 19:03 16.38154 78.78883 32916 ft 529 kts 158°
2026-05-05 19:03 16.31401 78.81924 32908 ft 529 kts 158°
2026-05-05 19:04 16.24679 78.84959 32891 ft 529 kts 158°
2026-05-05 19:04 16.17925 78.88003 32883 ft 529 kts 158°
2026-05-05 19:05 16.11157 78.91048 32874 ft 529 kts 158°
2026-05-05 19:05 16.04398 78.94087 32865 ft 529 kts 158°
2026-05-05 19:06 15.97676 78.97106 32859 ft 528 kts 158°
2026-05-05 19:06 15.90939 79.00130 32850 ft 526 kts 158°
2026-05-05 19:07 15.84224 79.03142 32843 ft 526 kts 158°
2026-05-05 19:07 15.77497 79.06156 32836 ft 526 kts 158°
2026-05-05 19:08 15.70811 79.09157 32829 ft 526 kts 158°
2026-05-05 19:08 15.64079 79.12169 32822 ft 525 kts 158°
2026-05-05 19:09 15.57372 79.15166 32816 ft 525 kts 158°
2026-05-05 19:09 15.50661 79.18164 32810 ft 525 kts 158°
2026-05-05 19:10 15.43948 79.21169 32805 ft 525 kts 158°
2026-05-05 19:10 15.37228 79.24186 32800 ft 525 kts 158°
2026-05-05 19:11 15.30583 79.27168 32795 ft 525 kts 158°
2026-05-05 19:11 15.23845 79.30198 32791 ft 530 kts 158°
2026-05-05 19:12 15.17054 79.33246 32787 ft 533 kts 158°
2026-05-05 19:12 15.10230 79.36303 32783 ft 534 kts 158°
2026-05-05 19:13 15.03418 79.39351 32781 ft 533 kts 158°
2026-05-05 19:13 14.96593 79.42379 32778 ft 533 kts 159°
2026-05-05 19:14 14.89669 79.45005 32778 ft 532 kts 162°
2026-05-05 19:14 14.82675 79.47553 32777 ft 532 kts 162°
2026-05-05 19:15 14.75695 79.50132 32777 ft 531 kts 161°
2026-05-05 19:15 14.68736 79.52715 32779 ft 531 kts 161°
2026-05-05 19:16 14.61794 79.55299 32773 ft 531 kts 161°
2026-05-05 19:16 14.54875 79.57878 32763 ft 531 kts 161°
2026-05-05 19:17 14.47912 79.60466 32764 ft 531 kts 161°
2026-05-05 19:17 14.40950 79.63052 32789 ft 530 kts 161°
2026-05-05 19:18 14.34039 79.65618 32798 ft 530 kts 161°
2026-05-05 19:18 14.27096 79.68194 32804 ft 530 kts 161°
2026-05-05 19:19 14.20149 79.70769 32811 ft 530 kts 161°
2026-05-05 19:19 14.13204 79.73343 32817 ft 530 kts 161°
2026-05-05 19:20 14.06274 79.75908 32822 ft 529 kts 161°
2026-05-05 19:20 13.99339 79.78474 32826 ft 529 kts 161°
2026-05-05 19:21 13.92400 79.81040 32830 ft 529 kts 161°
2026-05-05 19:21 13.85500 79.83591 32833 ft 529 kts 161°
2026-05-05 19:22 13.78564 79.86152 32835 ft 529 kts 161°
2026-05-05 19:22 13.71630 79.88713 32835 ft 529 kts 161°
2026-05-05 19:23 13.64704 79.91266 32835 ft 529 kts 161°
2026-05-05 19:23 13.57765 79.93824 32834 ft 529 kts 161°
2026-05-05 19:24 13.50822 79.96382 32831 ft 529 kts 161°
2026-05-05 19:24 13.43900 79.98930 32828 ft 529 kts 161°
2026-05-05 19:25 13.37015 80.01464 32825 ft 528 kts 161°
2026-05-05 19:25 13.30107 80.04004 32822 ft 527 kts 161°
2026-05-05 19:26 13.23172 80.06557 32820 ft 527 kts 161°
2026-05-05 19:26 13.16273 80.09090 32818 ft 526 kts 161°
2026-05-05 19:27 13.09360 80.11627 32817 ft 527 kts 161°
2026-05-05 19:27 13.02504 80.14140 32817 ft 526 kts 161°
2026-05-05 19:28 12.98951 80.15010 32823 ft 525 kts 173°
2026-05-05 19:28 12.95320 80.15300 32820 ft 525 kts 178°
2026-05-05 19:28 12.88023 80.15235 32818 ft 524 kts 182°
2026-05-05 19:29 12.80727 80.14896 32816 ft 524 kts 182°
2026-05-05 19:29 12.73448 80.14609 32817 ft 524 kts 182°
2026-05-05 19:30 12.66143 80.14342 32817 ft 525 kts 182°
2026-05-05 19:30 12.58864 80.14081 32817 ft 525 kts 181°
2026-05-05 19:31 12.51523 80.13820 32818 ft 525 kts 181°
2026-05-05 19:31 12.44280 80.13563 32818 ft 525 kts 181°
2026-05-05 19:32 12.36966 80.13303 32818 ft 526 kts 181°
2026-05-05 19:32 12.29662 80.13045 32818 ft 526 kts 181°
2026-05-05 19:33 12.22309 80.12785 32820 ft 526 kts 181°
2026-05-05 19:33 12.15011 80.12526 32820 ft 526 kts 181°
2026-05-05 19:34 12.07666 80.12266 32820 ft 526 kts 181°
2026-05-05 19:35 11.96661 80.11877 32821 ft 526 kts 181°
2026-05-05 19:35 11.89398 80.11620 32822 ft 526 kts 181°
2026-05-05 19:36 11.82191 80.12454 32822 ft 525 kts 159°
2026-05-05 19:36 11.78924 80.14125 32821 ft 525 kts 147°
2026-05-05 19:36 11.75882 80.16197 32818 ft 525 kts 146°
2026-05-05 19:37 11.69864 80.20485 32828 ft 525 kts 145°
2026-05-05 19:37 11.63918 80.24768 32820 ft 525 kts 145°
2026-05-05 19:38 11.57945 80.29065 32818 ft 525 kts 145°
2026-05-05 19:38 11.51979 80.33354 32818 ft 524 kts 145°
2026-05-05 19:39 11.45994 80.37653 32818 ft 524 kts 145°
2026-05-05 19:39 11.40070 80.41907 32819 ft 524 kts 145°
2026-05-05 19:40 11.34105 80.46196 32819 ft 523 kts 145°
2026-05-05 19:40 11.28216 80.50421 32818 ft 523 kts 145°
2026-05-05 19:41 11.22274 80.54679 32819 ft 523 kts 145°
2026-05-05 19:41 11.16353 80.58921 32818 ft 523 kts 145°
2026-05-05 19:42 11.10386 80.63197 32818 ft 523 kts 144°
2026-05-05 19:42 11.04519 80.67511 32819 ft 523 kts 144°
2026-05-05 19:43 10.98620 80.71854 32819 ft 523 kts 144°
2026-05-05 19:43 10.92723 80.76192 32819 ft 523 kts 144°
2026-05-05 19:44 10.86823 80.80538 32820 ft 522 kts 144°
2026-05-05 19:44 10.81912 80.84151 32820 ft 522 kts 144°
2026-05-05 19:45 10.75056 80.89186 32831 ft 521 kts 144°
2026-05-05 19:45 10.70152 80.92786 32840 ft 521 kts 144°
2026-05-05 19:46 10.64251 80.97114 32840 ft 521 kts 144°
2026-05-05 19:46 10.58406 81.01398 32841 ft 521 kts 144°
2026-05-05 19:47 10.52512 81.05716 32841 ft 520 kts 144°
2026-05-05 19:47 10.46643 81.10015 32842 ft 520 kts 144°
2026-05-05 19:48 10.40761 81.14322 32842 ft 520 kts 144°
2026-05-05 19:48 10.34932 81.18601 32842 ft 520 kts 144°
2026-05-05 19:49 10.29054 81.22904 32842 ft 520 kts 144°
2026-05-05 19:49 10.23169 81.27207 32843 ft 520 kts 144°
2026-05-05 19:50 10.17299 81.31498 32843 ft 519 kts 144°
2026-05-05 19:50 10.11450 81.35770 32843 ft 519 kts 144°
2026-05-05 19:51 10.05579 81.40053 32834 ft 519 kts 144°
2026-05-05 19:51 9.99743 81.44311 32833 ft 518 kts 144°
2026-05-05 19:52 9.93884 81.48583 32834 ft 518 kts 144°
2026-05-05 19:52 9.88018 81.52860 32834 ft 518 kts 144°
2026-05-05 19:53 9.82209 81.57100 32834 ft 517 kts 144°
2026-05-05 19:53 9.76372 81.61358 32835 ft 517 kts 144°
2026-05-05 19:54 9.70513 81.65627 32835 ft 517 kts 144°
2026-05-05 19:54 9.64673 81.69882 32835 ft 517 kts 144°
2026-05-05 19:55 9.58843 81.74129 32836 ft 517 kts 144°
2026-05-05 19:55 9.52975 81.78398 32836 ft 517 kts 144°
2026-05-05 19:56 9.47156 81.82628 32836 ft 518 kts 144°
2026-05-05 19:56 9.41282 81.86895 32836 ft 518 kts 144°
2026-05-05 19:57 9.35430 81.91145 32837 ft 518 kts 144°
2026-05-05 19:57 9.29740 81.95275 32837 ft 518 kts 144°
2026-05-05 19:58 9.23882 81.99526 32837 ft 518 kts 144°
2026-05-05 19:58 9.18015 82.03781 32838 ft 519 kts 144°
2026-05-05 19:59 9.12451 82.07819 32837 ft 519 kts 144°
2026-05-05 19:59 9.06558 82.12101 32838 ft 520 kts 144°
2026-05-05 20:00 9.00694 82.16351 32838 ft 520 kts 144°
2026-05-05 20:00 8.94796 82.20623 32837 ft 520 kts 144°
2026-05-05 20:01 8.88910 82.24884 32838 ft 520 kts 144°
2026-05-05 20:01 8.83033 82.29136 32839 ft 520 kts 144°
2026-05-05 20:02 8.77101 82.33424 32839 ft 520 kts 144°
2026-05-05 20:02 8.71234 82.37665 32839 ft 520 kts 144°
2026-05-05 20:03 8.65351 82.41916 32839 ft 520 kts 144°
2026-05-05 20:03 8.59458 82.46173 32839 ft 520 kts 144°
2026-05-05 20:04 8.53545 82.50451 32840 ft 520 kts 144°
2026-05-05 20:04 8.47979 82.54473 32840 ft 520 kts 144°
2026-05-05 20:05 8.41875 82.58881 32840 ft 521 kts 144°
2026-05-05 20:05 8.35999 82.63121 32839 ft 521 kts 144°
2026-05-05 20:06 8.30067 82.67405 32839 ft 522 kts 144°
2026-05-05 20:06 8.24162 82.71665 32840 ft 521 kts 144°
2026-05-05 20:07 8.18255 82.75921 32840 ft 521 kts 144°
2026-05-05 20:07 8.12358 82.80170 32840 ft 521 kts 144°
2026-05-05 20:08 8.06429 82.84438 32840 ft 521 kts 144°
2026-05-05 20:08 8.00514 82.88695 32840 ft 522 kts 144°
2026-05-05 20:09 7.94639 82.92921 32840 ft 522 kts 144°
2026-05-05 20:09 7.88702 82.97191 32840 ft 522 kts 144°
2026-05-05 20:10 7.82787 83.01453 32840 ft 522 kts 144°
2026-05-05 20:10 7.76872 83.05707 32840 ft 523 kts 144°
2026-05-05 20:11 7.70952 83.09961 32840 ft 523 kts 144°
2026-05-05 20:11 7.65045 83.14203 32840 ft 523 kts 144°
2026-05-05 20:12 7.59093 83.18476 32840 ft 523 kts 144°
2026-05-05 20:12 7.53194 83.22709 32840 ft 523 kts 144°
2026-05-05 20:13 7.47191 83.27015 32838 ft 523 kts 144°
2026-05-05 20:13 7.41233 83.31288 32838 ft 523 kts 144°
2026-05-05 20:14 7.35315 83.35531 32838 ft 523 kts 144°
2026-05-05 20:14 7.29376 83.39794 32838 ft 523 kts 144°
2026-05-05 20:15 7.23476 83.44030 32838 ft 523 kts 144°
2026-05-05 20:15 7.17830 83.48076 32838 ft 523 kts 144°
2026-05-05 20:16 7.11894 83.52326 32842 ft 523 kts 144°
2026-05-05 20:16 7.05993 83.56551 32842 ft 523 kts 144°
2026-05-05 20:17 7.00044 83.60807 32842 ft 523 kts 145°
2026-05-05 20:17 6.94111 83.65048 32842 ft 524 kts 145°
2026-05-05 20:18 6.88163 83.69300 32842 ft 524 kts 145°
2026-05-05 20:18 6.82210 83.73555 32845 ft 524 kts 145°
2026-05-05 20:19 6.77258 83.77093 32846 ft 524 kts 145°
2026-05-05 20:19 6.70362 83.82026 32845 ft 523 kts 145°
2026-05-05 20:20 6.65420 83.85560 32844 ft 523 kts 145°
2026-05-05 20:20 6.59459 83.89819 32845 ft 524 kts 145°
2026-05-05 20:21 6.53542 83.94044 32900 ft 524 kts 145°
2026-05-05 20:21 6.50549 83.96181 33059 ft 523 kts 145°
2026-05-05 20:21 6.47605 83.98283 33227 ft 522 kts 145°
2026-05-05 20:21 6.44622 84.00412 33434 ft 521 kts 145°
2026-05-05 20:22 6.41677 84.02514 33587 ft 520 kts 145°
2026-05-05 20:22 6.38731 84.04615 33708 ft 520 kts 145°
2026-05-05 20:22 6.35775 84.06724 33855 ft 519 kts 145°
2026-05-05 20:22 6.32825 84.08829 33991 ft 519 kts 145°
2026-05-05 20:23 6.29893 84.10920 34111 ft 518 kts 145°
2026-05-05 20:23 6.26951 84.13019 34281 ft 516 kts 145°
2026-05-05 20:23 6.24044 84.15091 34428 ft 516 kts 145°
2026-05-05 20:24 6.18160 84.19285 34557 ft 517 kts 145°
2026-05-05 20:24 6.15222 84.21379 34671 ft 517 kts 145°
2026-05-05 20:24 6.12310 84.23455 34768 ft 516 kts 145°
2026-05-05 20:25 6.06444 84.27634 34842 ft 516 kts 145°
2026-05-05 20:25 6.00593 84.31802 34844 ft 517 kts 145°
2026-05-05 20:26 5.94711 84.35990 34844 ft 517 kts 145°
2026-05-05 20:26 5.88865 84.40151 34844 ft 517 kts 145°
2026-05-05 20:27 5.82945 84.44365 34844 ft 517 kts 145°
2026-05-05 20:27 5.77096 84.48527 34844 ft 518 kts 145°
2026-05-05 20:28 5.71199 84.52721 34844 ft 518 kts 145°
2026-05-05 20:28 5.65338 84.56889 34844 ft 519 kts 145°
2026-05-05 20:29 5.59417 84.61100 34844 ft 519 kts 145°
2026-05-05 20:29 5.53546 84.65273 34844 ft 520 kts 145°
2026-05-05 20:30 5.47640 84.69470 34844 ft 520 kts 145°
2026-05-05 20:30 5.41712 84.73681 34844 ft 521 kts 145°
2026-05-05 20:31 5.35816 84.77869 34844 ft 522 kts 145°
2026-05-05 20:31 5.29885 84.82081 34843 ft 522 kts 145°
2026-05-05 20:32 5.23948 84.86296 34844 ft 522 kts 145°
2026-05-05 20:32 5.18006 84.90513 34844 ft 523 kts 145°
2026-05-05 20:33 5.12074 84.94722 34843 ft 523 kts 145°
2026-05-05 20:33 5.06141 84.98932 34843 ft 524 kts 145°
2026-05-05 20:34 5.00177 85.03162 34844 ft 524 kts 145°
2026-05-05 20:34 4.94263 85.07356 34844 ft 524 kts 145°
2026-05-05 20:35 4.88295 85.11587 34843 ft 525 kts 145°
2026-05-05 20:35 4.82324 85.15820 34843 ft 525 kts 145°
2026-05-05 20:36 4.76369 85.20040 34843 ft 526 kts 145°
2026-05-05 20:36 4.70378 85.24288 34843 ft 526 kts 145°
2026-05-05 20:37 4.64394 85.28526 34829 ft 527 kts 145°
2026-05-05 20:37 4.58421 85.32756 34827 ft 527 kts 145°
2026-05-05 20:38 4.52427 85.37000 34826 ft 528 kts 145°
2026-05-05 20:38 4.46407 85.41259 34827 ft 529 kts 145°
2026-05-05 20:39 4.40394 85.45510 34827 ft 529 kts 145°
2026-05-05 20:39 4.34366 85.49774 34827 ft 530 kts 145°
2026-05-05 20:40 4.28366 85.54017 34827 ft 530 kts 145°
2026-05-05 20:40 4.22329 85.58285 34830 ft 531 kts 145°
2026-05-05 20:41 4.16296 85.62554 34831 ft 532 kts 145°
2026-05-05 20:41 4.10246 85.66834 34830 ft 532 kts 145°
2026-05-05 20:42 4.04236 85.71082 34830 ft 532 kts 145°
2026-05-05 20:42 3.98230 85.75328 34831 ft 532 kts 145°
2026-05-05 20:43 3.92109 85.79653 34831 ft 533 kts 145°
2026-05-05 20:43 3.86068 85.83921 34831 ft 533 kts 145°
2026-05-05 20:44 3.79980 85.88222 34831 ft 533 kts 145°
2026-05-05 20:44 3.73944 85.92485 34831 ft 533 kts 145°
2026-05-05 20:45 3.64856 85.98902 34831 ft 532 kts 145°
2026-05-05 20:45 3.58823 86.03161 34832 ft 532 kts 145°
2026-05-05 20:46 3.52755 86.07444 34831 ft 532 kts 145°
2026-05-05 20:46 3.46703 86.11716 34832 ft 532 kts 144°
2026-05-05 20:47 3.40644 86.15991 34832 ft 532 kts 144°
2026-05-05 20:47 3.34594 86.20260 34832 ft 532 kts 144°
2026-05-05 20:48 3.28534 86.24534 34833 ft 531 kts 144°
2026-05-05 20:48 3.22529 86.28770 34830 ft 531 kts 144°
2026-05-05 20:49 3.16485 86.33032 34830 ft 531 kts 144°
2026-05-05 20:49 3.10451 86.37286 34829 ft 530 kts 144°
2026-05-05 20:50 3.04433 86.41529 34829 ft 530 kts 144°
2026-05-05 20:50 2.98392 86.45787 34830 ft 530 kts 144°
2026-05-05 20:51 2.92411 86.50003 34829 ft 529 kts 144°
2026-05-05 20:51 2.86395 86.54242 34829 ft 529 kts 144°
2026-05-05 20:52 2.80378 86.58482 34830 ft 529 kts 143°
2026-05-05 20:52 2.74364 86.62720 34829 ft 528 kts 143°
2026-05-05 20:53 2.68365 86.66946 34829 ft 528 kts 143°
2026-05-05 20:53 2.62343 86.71187 34830 ft 528 kts 143°
2026-05-05 20:54 2.56325 86.75426 34830 ft 528 kts 143°
2026-05-05 20:54 2.50352 86.79632 34829 ft 527 kts 143°
2026-05-05 20:55 2.44338 86.83868 34829 ft 527 kts 143°
2026-05-05 20:55 2.38335 86.88095 34829 ft 527 kts 143°
2026-05-05 20:56 2.32342 86.92314 34830 ft 527 kts 143°
2026-05-05 20:56 2.26374 86.96515 34830 ft 526 kts 143°
2026-05-05 20:57 2.20405 87.00714 34830 ft 526 kts 143°
2026-05-05 20:57 2.14399 87.04938 34829 ft 526 kts 143°
2026-05-05 20:58 2.08426 87.09139 34829 ft 526 kts 143°
2026-05-05 20:58 2.02441 87.13349 34829 ft 525 kts 143°
2026-05-05 20:59 1.96477 87.17544 34829 ft 524 kts 143°
2026-05-05 20:59 1.90512 87.21742 34829 ft 523 kts 143°
2026-05-05 21:00 1.84584 87.25913 34830 ft 522 kts 143°
2026-05-05 21:00 1.78663 87.30077 34829 ft 523 kts 143°
2026-05-05 21:01 1.73685 87.33578 34830 ft 523 kts 143°
2026-05-05 21:01 1.66763 87.38446 34829 ft 523 kts 143°
2026-05-05 21:02 1.60797 87.42642 34829 ft 523 kts 143°
2026-05-05 21:02 1.54860 87.46816 34829 ft 523 kts 143°
2026-05-05 21:03 1.49899 87.50305 34821 ft 523 kts 143°
2026-05-05 21:03 1.43960 87.54481 34822 ft 523 kts 143°
2026-05-05 21:04 1.38002 87.58668 34821 ft 523 kts 143°
2026-05-05 21:04 1.32080 87.62831 34821 ft 523 kts 143°
2026-05-05 21:05 1.26121 87.67020 34821 ft 523 kts 143°
2026-05-05 21:05 1.20162 87.71209 34821 ft 523 kts 143°
2026-05-05 21:06 1.14217 87.75388 34820 ft 523 kts 143°
2026-05-05 21:06 1.08239 87.79590 34820 ft 524 kts 143°
2026-05-05 21:07 1.02281 87.83777 34816 ft 524 kts 143°
2026-05-05 21:07 0.96316 87.87970 34816 ft 524 kts 143°
2026-05-05 21:08 0.90343 87.92167 34816 ft 525 kts 143°
2026-05-05 21:08 0.84399 87.96342 34816 ft 525 kts 143°
2026-05-05 21:09 0.78427 88.00536 34815 ft 525 kts 143°
2026-05-05 21:09 0.72438 88.04743 34815 ft 526 kts 143°
2026-05-05 21:10 0.66440 88.08956 34816 ft 527 kts 143°
2026-05-05 21:10 0.60453 88.13162 34816 ft 527 kts 143°
2026-05-05 21:11 0.54440 88.17387 34816 ft 527 kts 143°
2026-05-05 21:11 0.48449 88.21596 34815 ft 527 kts 143°
2026-05-05 21:12 0.42444 88.25815 34831 ft 527 kts 143°
2026-05-05 21:12 0.36437 88.30035 34832 ft 528 kts 143°
2026-05-05 21:13 0.30458 88.34235 34832 ft 528 kts 143°
2026-05-05 21:13 0.24437 88.38464 34832 ft 528 kts 143°
2026-05-05 21:14 0.18446 88.42673 34832 ft 528 kts 143°
2026-05-05 21:14 0.12426 88.46902 34832 ft 528 kts 143°
2026-05-05 21:15 0.06410 88.51128 34832 ft 528 kts 143°
2026-05-05 21:15 0.00433 88.55327 34832 ft 528 kts 143°
2026-05-05 21:16 -0.05576 88.59548 34833 ft 529 kts 143°
2026-05-05 21:16 -0.11614 88.63790 34833 ft 529 kts 143°
2026-05-05 21:17 -0.17635 88.68020 34833 ft 530 kts 143°
2026-05-05 21:17 -0.23642 88.72239 34832 ft 530 kts 143°
2026-05-05 21:18 -0.29670 88.76474 34833 ft 530 kts 143°
2026-05-05 21:18 -0.35709 88.80716 34833 ft 530 kts 144°
2026-05-05 21:19 -0.41754 88.84964 34833 ft 531 kts 144°
2026-05-05 21:19 -0.47798 88.89209 34833 ft 531 kts 144°
2026-05-05 21:20 -0.53844 88.93457 34833 ft 531 kts 144°
2026-05-05 21:20 -0.59897 88.97710 34834 ft 532 kts 144°
2026-05-05 21:21 -0.65913 89.01937 34834 ft 532 kts 144°
2026-05-05 21:21 -0.71970 89.06193 34834 ft 532 kts 144°
2026-05-05 21:22 -0.78072 89.10482 34833 ft 532 kts 144°
2026-05-05 21:22 -0.84089 89.14709 34832 ft 532 kts 144°
2026-05-05 21:23 -0.90139 89.18958 34833 ft 532 kts 144°
2026-05-05 21:23 -0.96215 89.23227 34833 ft 533 kts 144°
2026-05-05 21:24 -1.02280 89.27488 34833 ft 533 kts 144°
2026-05-05 21:24 -1.08320 89.31734 34833 ft 533 kts 144°
2026-05-05 21:25 -1.14401 89.36008 34833 ft 533 kts 144°
2026-05-05 21:25 -1.20448 89.40256 34833 ft 533 kts 144°
2026-05-05 21:26 -1.26519 89.44524 34834 ft 533 kts 144°
2026-05-05 21:26 -1.32587 89.48789 34834 ft 534 kts 144°
2026-05-05 21:27 -1.38669 89.53064 34833 ft 534 kts 144°
2026-05-05 21:27 -1.44743 89.57334 34834 ft 534 kts 144°
2026-05-05 21:28 -1.50785 89.61583 34835 ft 534 kts 144°
2026-05-05 21:28 -1.56883 89.65870 34835 ft 534 kts 144°
2026-05-05 21:29 -1.62973 89.70152 34834 ft 534 kts 144°
2026-05-05 21:29 -1.69058 89.74432 34835 ft 535 kts 144°
2026-05-05 21:30 -1.75154 89.78718 34835 ft 535 kts 144°
2026-05-05 21:30 -1.81250 89.83006 34835 ft 535 kts 144°
2026-05-05 21:31 -1.87294 89.87258 34835 ft 535 kts 144°
2026-05-05 21:31 -1.93379 89.91540 34835 ft 535 kts 144°
2026-05-05 21:32 -1.99279 89.96052 34842 ft 533 kts 134°
2026-05-05 21:32 -2.04052 90.01754 34836 ft 533 kts 126°
2026-05-05 21:33 -2.08332 90.07787 34836 ft 532 kts 124°
2026-05-05 21:33 -2.12561 90.13842 34836 ft 532 kts 124°
2026-05-05 21:34 -2.16832 90.19897 34836 ft 532 kts 124°
2026-05-05 21:34 -2.21109 90.25938 34836 ft 532 kts 124°
2026-05-05 21:35 -2.25400 90.31988 34837 ft 532 kts 124°
2026-05-05 21:35 -2.29678 90.38021 34836 ft 532 kts 124°
2026-05-05 21:36 -2.33969 90.44073 34837 ft 532 kts 124°
2026-05-05 21:36 -2.38225 90.50076 34833 ft 532 kts 124°
2026-05-05 21:37 -2.42506 90.56113 34832 ft 532 kts 124°
2026-05-05 21:37 -2.46796 90.62166 34832 ft 532 kts 124°
2026-05-05 21:38 -2.51076 90.68205 34832 ft 532 kts 124°
2026-05-05 21:38 -2.55368 90.74260 34832 ft 532 kts 124°
2026-05-05 21:39 -2.59620 90.80262 34832 ft 532 kts 124°
2026-05-05 21:39 -2.63899 90.86300 34832 ft 532 kts 124°
2026-05-05 21:40 -2.68169 90.92329 34833 ft 532 kts 124°
2026-05-05 21:40 -2.72443 90.98362 34833 ft 532 kts 124°
2026-05-05 21:41 -2.76717 91.04398 34833 ft 532 kts 124°
2026-05-05 21:41 -2.80999 91.10445 34833 ft 532 kts 124°
2026-05-05 21:42 -2.85282 91.16494 34834 ft 531 kts 124°
2026-05-05 21:42 -2.89538 91.22507 34834 ft 531 kts 124°
2026-05-05 21:43 -2.93809 91.28542 34834 ft 531 kts 124°
2026-05-05 21:43 -2.98077 91.34572 34834 ft 531 kts 124°
2026-05-05 21:44 -3.02335 91.40591 34834 ft 531 kts 124°
2026-05-05 21:44 -3.06610 91.46634 34835 ft 531 kts 124°
2026-05-05 21:45 -3.10884 91.52675 34835 ft 531 kts 124°
2026-05-05 21:45 -3.15143 91.58698 34835 ft 531 kts 124°
2026-05-05 21:46 -3.19416 91.64741 34835 ft 531 kts 124°
2026-05-05 21:46 -3.23684 91.70779 34835 ft 531 kts 124°
2026-05-05 21:47 -3.27944 91.76804 34836 ft 531 kts 124°
2026-05-05 21:47 -3.32192 91.82815 34836 ft 531 kts 124°
2026-05-05 21:48 -3.35748 91.87848 34834 ft 531 kts 124°
2026-05-05 21:48 -3.40017 91.93890 34836 ft 531 kts 124°
2026-05-05 21:49 -3.44278 91.99922 34836 ft 531 kts 124°
2026-05-05 21:49 -3.48524 92.05934 34837 ft 530 kts 124°
2026-05-05 21:50 -3.52780 92.11961 34837 ft 530 kts 124°
2026-05-05 21:50 -3.57035 92.17989 34837 ft 530 kts 124°
2026-05-05 21:51 -3.61291 92.24018 34838 ft 530 kts 124°
2026-05-05 21:51 -3.65558 92.30064 34838 ft 530 kts 124°
2026-05-05 21:52 -3.71938 92.39106 34827 ft 530 kts 124°
2026-05-05 21:53 -3.76164 92.45097 34827 ft 530 kts 124°
2026-05-05 21:53 -3.80422 92.51135 34827 ft 530 kts 124°
2026-05-05 21:54 -3.84663 92.57150 34827 ft 530 kts 124°
2026-05-05 21:54 -3.88927 92.63198 34828 ft 530 kts 124°
2026-05-05 21:55 -3.93178 92.69229 34828 ft 529 kts 124°
2026-05-05 21:55 -3.97394 92.75209 34830 ft 529 kts 124°
2026-05-05 21:56 -4.01646 92.81244 34836 ft 529 kts 124°
2026-05-05 21:56 -4.05898 92.87283 34836 ft 529 kts 124°
2026-05-05 21:57 -4.10136 92.93304 34837 ft 529 kts 124°
2026-05-05 21:57 -4.14357 92.99297 34836 ft 528 kts 124°
2026-05-05 21:58 -4.18568 93.05274 34837 ft 528 kts 124°
2026-05-05 21:58 -4.22825 93.11321 34837 ft 528 kts 124°
2026-05-05 21:59 -4.27057 93.17335 34838 ft 528 kts 124°
2026-05-05 21:59 -4.31295 93.23359 34837 ft 528 kts 124°
2026-05-05 22:00 -4.35497 93.29328 34837 ft 527 kts 124°
2026-05-05 22:00 -4.39736 93.35349 34837 ft 527 kts 124°
2026-05-05 22:01 -4.43947 93.41336 34838 ft 527 kts 124°
2026-05-05 22:01 -4.48181 93.47357 34838 ft 527 kts 124°
2026-05-05 22:02 -4.52408 93.53370 34838 ft 527 kts 124°
2026-05-05 22:02 -4.56631 93.59379 34838 ft 527 kts 124°
2026-05-05 22:03 -4.60845 93.65376 34838 ft 527 kts 124°
2026-05-05 22:03 -4.65075 93.71398 34838 ft 527 kts 124°
2026-05-05 22:04 -4.69270 93.77371 34839 ft 527 kts 124°
2026-05-05 22:04 -4.73492 93.83384 34839 ft 527 kts 124°
2026-05-05 22:05 -4.77723 93.89411 34839 ft 527 kts 124°
2026-05-05 22:05 -4.81939 93.95418 34839 ft 527 kts 124°
2026-05-05 22:06 -4.86158 94.01431 34839 ft 527 kts 124°
2026-05-05 22:06 -4.90373 94.07441 34840 ft 526 kts 124°
2026-05-05 22:07 -4.94595 94.13462 34840 ft 526 kts 124°
2026-05-05 22:07 -4.98775 94.19424 34840 ft 527 kts 124°
2026-05-05 22:08 -5.03009 94.25464 34840 ft 527 kts 124°
2026-05-05 22:08 -5.07191 94.31434 34840 ft 527 kts 124°
2026-05-05 22:09 -5.11436 94.37493 34840 ft 527 kts 124°
2026-05-05 22:09 -5.15625 94.43474 34840 ft 527 kts 124°
2026-05-05 22:10 -5.19840 94.49494 34841 ft 527 kts 124°
2026-05-05 22:10 -5.24054 94.55515 34841 ft 527 kts 124°
2026-05-05 22:11 -5.28241 94.61497 34841 ft 527 kts 124°
2026-05-05 22:11 -5.32456 94.67523 34841 ft 527 kts 124°
2026-05-05 22:12 -5.36671 94.73550 34841 ft 527 kts 124°
2026-05-05 22:12 -5.40873 94.79559 34842 ft 527 kts 124°
2026-05-05 22:13 -5.45084 94.85584 34843 ft 527 kts 124°
2026-05-05 22:13 -5.49294 94.91608 34842 ft 527 kts 124°
2026-05-05 22:14 -5.53482 94.97602 34842 ft 526 kts 124°
2026-05-05 22:14 -5.57722 95.03674 34843 ft 526 kts 124°
2026-05-05 22:15 -5.61885 95.09636 34843 ft 526 kts 124°
2026-05-05 22:15 -5.66088 95.15657 34843 ft 526 kts 124°
2026-05-05 22:16 -5.70292 95.21682 34844 ft 526 kts 124°
2026-05-05 22:16 -5.74492 95.27703 34844 ft 526 kts 124°
2026-05-05 22:17 -5.78697 95.33733 34844 ft 526 kts 124°
2026-05-05 22:17 -5.82892 95.39749 34844 ft 526 kts 124°
2026-05-05 22:18 -5.87081 95.45760 34840 ft 525 kts 124°
2026-05-05 22:18 -5.91249 95.51742 34840 ft 525 kts 124°
2026-05-05 22:19 -5.95465 95.57795 34840 ft 525 kts 124°
2026-05-05 22:19 -5.99626 95.63769 34840 ft 525 kts 124°
2026-05-05 22:20 -6.03809 95.69779 34841 ft 525 kts 124°
2026-05-05 22:20 -6.08008 95.75813 34841 ft 525 kts 124°
2026-05-05 22:21 -6.12165 95.81789 34842 ft 525 kts 124°
2026-05-05 22:21 -6.16349 95.87805 34842 ft 525 kts 124°
2026-05-05 22:22 -6.20525 95.93811 34842 ft 525 kts 124°
2026-05-05 22:22 -6.24711 95.99835 34842 ft 525 kts 124°
2026-05-05 22:23 -6.28890 96.05849 34843 ft 525 kts 124°
2026-05-05 22:23 -6.33050 96.11838 34843 ft 525 kts 124°
2026-05-05 22:24 -6.37237 96.17869 34843 ft 526 kts 124°
2026-05-05 22:24 -6.41405 96.23873 34844 ft 526 kts 124°
2026-05-05 22:25 -6.45612 96.29937 34844 ft 526 kts 124°
2026-05-05 22:25 -6.49770 96.35931 34845 ft 526 kts 124°
2026-05-05 22:26 -6.53959 96.41972 34845 ft 527 kts 124°
2026-05-05 22:26 -6.58155 96.48025 34845 ft 526 kts 124°
2026-05-05 22:27 -6.62340 96.54066 34845 ft 526 kts 124°
2026-05-05 22:27 -6.66532 96.60116 34846 ft 527 kts 124°
2026-05-05 22:28 -6.70730 96.66180 34846 ft 527 kts 124°
2026-05-05 22:28 -6.74916 96.72226 34846 ft 527 kts 124°
2026-05-05 22:29 -6.79097 96.78269 34846 ft 527 kts 124°
2026-05-05 22:29 -6.83266 96.84296 34857 ft 528 kts 124°
2026-05-05 22:30 -6.87466 96.90369 34861 ft 528 kts 124°
2026-05-05 22:30 -6.91662 96.96440 34863 ft 527 kts 124°
2026-05-05 22:31 -6.95849 97.02499 34863 ft 528 kts 124°
2026-05-05 22:31 -7.00025 97.08544 34863 ft 529 kts 124°
2026-05-05 22:32 -7.04226 97.14629 34875 ft 529 kts 124°
2026-05-05 22:32 -7.07719 97.19690 34875 ft 528 kts 124°
2026-05-05 22:33 -7.11913 97.25768 34875 ft 528 kts 124°
2026-05-05 22:33 -7.16115 97.31859 34876 ft 529 kts 124°
2026-05-05 22:34 -7.20317 97.37954 34875 ft 529 kts 124°
2026-05-05 22:34 -7.24487 97.44003 34876 ft 529 kts 124°
2026-05-05 22:35 -7.28680 97.50089 34876 ft 530 kts 124°
2026-05-05 22:35 -7.32888 97.56199 34876 ft 530 kts 124°
2026-05-05 22:36 -7.37092 97.62306 34876 ft 530 kts 124°
2026-05-05 22:36 -7.41301 97.68422 34876 ft 531 kts 124°
2026-05-05 22:37 -7.45515 97.74548 34877 ft 531 kts 124°
2026-05-05 22:37 -7.49697 97.80629 34877 ft 531 kts 124°
2026-05-05 22:38 -7.53936 97.86796 34877 ft 532 kts 124°
2026-05-05 22:38 -7.58139 97.92912 34877 ft 532 kts 124°
2026-05-05 22:39 -7.62330 97.99015 34877 ft 532 kts 124°
2026-05-05 22:39 -7.66549 98.05160 34878 ft 532 kts 124°
2026-05-05 22:40 -7.70766 98.11305 34878 ft 532 kts 124°
2026-05-05 22:40 -7.74981 98.17449 34878 ft 532 kts 124°
2026-05-05 22:41 -7.79160 98.23544 34878 ft 532 kts 124°
2026-05-05 22:41 -7.83372 98.29688 34878 ft 532 kts 124°
2026-05-05 22:42 -7.87585 98.35837 34878 ft 532 kts 124°
2026-05-05 22:42 -7.91784 98.41968 34877 ft 532 kts 124°
2026-05-05 22:43 -7.95991 98.48113 34879 ft 532 kts 124°
2026-05-05 22:43 -8.00207 98.54274 34879 ft 532 kts 124°
2026-05-05 22:44 -8.04382 98.60378 34879 ft 533 kts 124°
2026-05-05 22:44 -8.08602 98.66551 34879 ft 533 kts 124°
2026-05-05 22:45 -8.12814 98.72714 34878 ft 533 kts 124°
2026-05-05 22:45 -8.17030 98.78885 34879 ft 533 kts 124°
2026-05-05 22:46 -8.21236 98.85045 34879 ft 533 kts 124°
2026-05-05 22:46 -8.25424 98.91180 34879 ft 533 kts 124°
2026-05-05 22:47 -8.29627 98.97341 34879 ft 533 kts 124°
2026-05-05 22:47 -8.33836 99.03513 34879 ft 533 kts 124°
2026-05-05 22:48 -8.38047 99.09690 34880 ft 533 kts 124°
2026-05-05 22:48 -8.42251 99.15860 34880 ft 533 kts 124°
2026-05-05 22:49 -8.46465 99.22049 35132 ft 532 kts 124°
2026-05-05 22:49 -8.48525 99.25074 35380 ft 530 kts 124°
2026-05-05 22:49 -8.50619 99.28151 35524 ft 530 kts 124°
2026-05-05 22:49 -8.52735 99.31260 35678 ft 530 kts 124°
2026-05-05 22:50 -8.54798 99.34292 35822 ft 530 kts 124°
2026-05-05 22:50 -8.56884 99.37359 35967 ft 529 kts 124°
2026-05-05 22:50 -8.58958 99.40409 36101 ft 529 kts 124°
2026-05-05 22:50 -8.61048 99.43482 36228 ft 528 kts 124°
2026-05-05 22:51 -8.63133 99.46550 36349 ft 528 kts 124°
2026-05-05 22:51 -8.65206 99.49600 36463 ft 528 kts 124°
2026-05-05 22:51 -8.67287 99.52663 36572 ft 527 kts 124°
2026-05-05 22:51 -8.69371 99.55732 36673 ft 527 kts 124°
2026-05-05 22:52 -8.71442 99.58780 36769 ft 527 kts 124°
2026-05-05 22:52 -8.75592 99.64895 36877 ft 527 kts 124°
2026-05-05 22:53 -8.79743 99.71011 36882 ft 527 kts 124°
2026-05-05 22:53 -8.83864 99.77087 36882 ft 527 kts 124°
2026-05-05 22:54 -8.88010 99.83202 36883 ft 528 kts 124°
2026-05-05 22:54 -8.92158 99.89325 36883 ft 528 kts 124°
2026-05-05 22:55 -8.96307 99.95449 36883 ft 528 kts 124°
2026-05-05 22:55 -9.00463 100.01588 36884 ft 528 kts 124°
2026-05-05 22:56 -9.04621 100.07734 36884 ft 529 kts 124°
2026-05-05 22:56 -9.08747 100.13834 36884 ft 529 kts 124°
2026-05-05 22:57 -9.12908 100.19989 36885 ft 529 kts 124°
2026-05-05 22:57 -9.17063 100.26138 36885 ft 530 kts 124°
2026-05-05 22:58 -9.21229 100.32307 36886 ft 530 kts 124°
2026-05-05 22:58 -9.25384 100.38462 36886 ft 530 kts 124°
2026-05-05 22:59 -9.29526 100.44601 36886 ft 530 kts 124°
2026-05-05 22:59 -9.33677 100.50756 36887 ft 530 kts 124°
2026-05-05 23:00 -9.39932 100.60036 36887 ft 531 kts 124°
2026-05-05 23:00 -9.44097 100.66220 36888 ft 531 kts 124°
2026-05-05 23:01 -9.48253 100.72394 36888 ft 531 kts 124°
2026-05-05 23:01 -9.52389 100.78540 36888 ft 530 kts 124°
2026-05-05 23:02 -9.56547 100.84723 36889 ft 531 kts 124°
2026-05-05 23:02 -9.60696 100.90895 36890 ft 530 kts 124°
2026-05-05 23:03 -9.64860 100.97093 36890 ft 530 kts 124°
2026-05-05 23:03 -9.69011 101.03276 36890 ft 530 kts 124°
2026-05-05 23:04 -9.73010 101.09233 36891 ft 531 kts 124°
2026-05-05 23:04 -9.77172 101.15438 36892 ft 531 kts 124°
2026-05-05 23:05 -9.81331 101.21641 36892 ft 531 kts 124°
2026-05-05 23:05 -9.85494 101.27854 36893 ft 531 kts 124°
2026-05-05 23:06 -9.89619 101.34011 36893 ft 531 kts 124°
2026-05-05 23:06 -9.93774 101.40218 36894 ft 531 kts 124°
2026-05-05 23:07 -9.97925 101.46422 36894 ft 531 kts 124°
2026-05-05 23:07 -10.02083 101.52641 36893 ft 533 kts 124°
2026-05-05 23:08 -10.06254 101.58881 36893 ft 533 kts 124°
2026-05-05 23:08 -10.10409 101.65101 36894 ft 533 kts 124°
2026-05-05 23:09 -10.14547 101.71299 36895 ft 533 kts 124°
2026-05-05 23:09 -10.18701 101.77525 36896 ft 533 kts 124°
2026-05-05 23:10 -10.22863 101.83765 36896 ft 533 kts 124°
2026-05-05 23:10 -10.27023 101.90007 36897 ft 533 kts 124°
2026-05-05 23:11 -10.31149 101.96201 36897 ft 533 kts 124°
2026-05-05 23:11 -10.35316 102.02459 36898 ft 532 kts 124°
2026-05-05 23:12 -10.39463 102.08690 36899 ft 532 kts 124°
2026-05-05 23:12 -10.43587 102.14892 36900 ft 532 kts 124°
2026-05-05 23:13 -10.47738 102.21136 36917 ft 532 kts 124°
2026-05-05 23:13 -10.51883 102.27376 36918 ft 533 kts 124°
2026-05-05 23:14 -10.56027 102.33618 36919 ft 533 kts 124°
2026-05-05 23:14 -10.60180 102.39877 36920 ft 533 kts 124°
2026-05-05 23:15 -10.64328 102.46130 36920 ft 533 kts 124°
2026-05-05 23:15 -10.68447 102.52346 36921 ft 532 kts 124°
2026-05-05 23:16 -10.71917 102.57583 36922 ft 532 kts 124°
2026-05-05 23:16 -10.76041 102.63812 36922 ft 532 kts 124°
2026-05-05 23:17 -10.80166 102.70047 36922 ft 533 kts 124°
2026-05-05 23:17 -10.84302 102.76287 36923 ft 533 kts 124°
2026-05-05 23:18 -10.88445 102.82558 36924 ft 533 kts 124°
2026-05-05 23:18 -10.92580 102.88824 36924 ft 533 kts 124°
2026-05-05 23:19 -10.96660 102.95008 36925 ft 532 kts 125°
2026-05-05 23:19 -11.00592 103.00962 36925 ft 532 kts 125°
2026-05-05 23:20 -11.04709 103.07199 36925 ft 532 kts 125°
2026-05-05 23:20 -11.08830 103.13451 36927 ft 532 kts 125°
2026-05-05 23:21 -11.12960 103.19722 36926 ft 533 kts 125°
2026-05-05 23:21 -11.17084 103.25987 36927 ft 533 kts 125°
2026-05-05 23:22 -11.21237 103.32273 36928 ft 533 kts 125°
2026-05-05 23:22 -11.25340 103.38496 36928 ft 533 kts 125°
2026-05-05 23:23 -11.29465 103.44762 36928 ft 533 kts 125°
2026-05-05 23:23 -11.33624 103.51084 36928 ft 533 kts 125°
2026-05-05 23:24 -11.37733 103.57336 36929 ft 534 kts 125°
2026-05-05 23:24 -11.41870 103.63635 36929 ft 534 kts 125°
2026-05-05 23:25 -11.46003 103.69932 36930 ft 534 kts 125°
2026-05-05 23:25 -11.50131 103.76225 36930 ft 534 kts 125°
2026-05-05 23:26 -11.54250 103.82508 36930 ft 535 kts 125°
2026-05-05 23:26 -11.58385 103.88820 36931 ft 535 kts 125°
2026-05-05 23:27 -11.62504 103.95110 36931 ft 535 kts 125°
2026-05-05 23:27 -11.66637 104.01427 36931 ft 535 kts 125°
2026-05-05 23:28 -11.70768 104.07744 36930 ft 535 kts 125°
2026-05-05 23:28 -11.74909 104.14081 36931 ft 535 kts 125°
2026-05-05 23:29 -11.79017 104.20371 36931 ft 535 kts 125°
2026-05-05 23:29 -11.83155 104.26712 36931 ft 535 kts 125°
2026-05-05 23:30 -11.87295 104.33058 36931 ft 535 kts 125°
2026-05-05 23:30 -11.91392 104.39344 36932 ft 535 kts 125°
2026-05-05 23:31 -11.95514 104.45671 36932 ft 535 kts 125°
2026-05-05 23:31 -11.99642 104.52012 36932 ft 535 kts 125°
2026-05-05 23:32 -12.03754 104.58334 36933 ft 535 kts 125°
2026-05-05 23:32 -12.07885 104.64687 36932 ft 536 kts 125°
2026-05-05 23:33 -12.12002 104.71024 36932 ft 536 kts 125°
2026-05-05 23:33 -12.16125 104.77373 36931 ft 536 kts 125°
2026-05-05 23:34 -12.20248 104.83728 36931 ft 536 kts 125°
2026-05-05 23:34 -12.24348 104.90051 36932 ft 536 kts 125°
2026-05-05 23:35 -12.28466 104.96405 36932 ft 536 kts 125°
2026-05-05 23:35 -12.32593 105.02779 36935 ft 536 kts 125°
2026-05-05 23:36 -12.36704 105.09132 36936 ft 536 kts 125°
2026-05-05 23:36 -12.40827 105.15507 36936 ft 537 kts 125°
2026-05-05 23:37 -12.44926 105.21850 36962 ft 536 kts 125°
2026-05-05 23:37 -12.49041 105.28222 36963 ft 536 kts 125°
2026-05-05 23:38 -12.53150 105.34588 36962 ft 536 kts 125°
2026-05-05 23:38 -12.57250 105.40946 36963 ft 536 kts 125°
2026-05-05 23:39 -12.61359 105.47322 36963 ft 536 kts 125°
2026-05-05 23:39 -12.65465 105.53697 36963 ft 537 kts 125°
2026-05-05 23:40 -12.69574 105.60081 36963 ft 537 kts 125°
2026-05-05 23:40 -12.73682 105.66468 36964 ft 537 kts 125°
2026-05-05 23:41 -12.77767 105.72824 36960 ft 536 kts 125°
2026-05-05 23:41 -12.81870 105.79212 36960 ft 536 kts 125°
2026-05-05 23:42 -12.85967 105.85596 36959 ft 536 kts 125°
2026-05-05 23:42 -12.90065 105.91986 36959 ft 536 kts 125°
2026-05-05 23:43 -12.94164 105.98380 36959 ft 536 kts 125°
2026-05-05 23:43 -12.98265 106.04785 36960 ft 537 kts 126°
2026-05-05 23:44 -13.02343 106.11156 36959 ft 537 kts 126°
2026-05-05 23:44 -13.06442 106.17566 36959 ft 537 kts 126°
2026-05-05 23:45 -13.10533 106.23967 36960 ft 537 kts 126°
2026-05-05 23:45 -13.14632 106.30386 36960 ft 537 kts 126°
2026-05-05 23:46 -13.18728 106.36804 36960 ft 537 kts 126°
2026-05-05 23:46 -13.22820 106.43220 36960 ft 537 kts 126°
2026-05-05 23:47 -13.26921 106.49657 36960 ft 537 kts 126°
2026-05-05 23:47 -13.31009 106.56076 36960 ft 537 kts 126°
2026-05-05 23:48 -13.35065 106.62451 36960 ft 537 kts 126°
2026-05-05 23:48 -13.39164 106.68897 36960 ft 538 kts 126°
2026-05-05 23:49 -13.43246 106.75321 36958 ft 538 kts 126°
2026-05-05 23:49 -13.47327 106.81750 36960 ft 538 kts 126°
2026-05-05 23:50 -13.51405 106.88178 36961 ft 538 kts 126°
2026-05-05 23:50 -13.55495 106.94630 36965 ft 538 kts 126°
2026-05-05 23:51 -13.59583 107.01083 36965 ft 539 kts 126°
2026-05-05 23:51 -13.63661 107.07525 36965 ft 539 kts 126°
2026-05-05 23:52 -13.67739 107.13971 36967 ft 538 kts 126°
2026-05-05 23:52 -13.71821 107.20429 36968 ft 539 kts 126°
2026-05-05 23:53 -13.75905 107.26897 36968 ft 539 kts 126°
2026-05-05 23:53 -13.80002 107.33389 36968 ft 539 kts 126°
2026-05-05 23:54 -13.84079 107.39853 36969 ft 539 kts 126°
2026-05-05 23:54 -13.88180 107.46362 36969 ft 540 kts 126°
2026-05-05 23:55 -13.92240 107.52810 36969 ft 540 kts 126°
2026-05-05 23:55 -13.96330 107.59312 36970 ft 541 kts 126°
2026-05-05 23:56 -14.00428 107.65830 36970 ft 541 kts 126°
2026-05-05 23:56 -14.04515 107.72336 36970 ft 541 kts 126°
2026-05-05 23:57 -14.08585 107.78820 36970 ft 541 kts 126°
2026-05-05 23:57 -14.12671 107.85335 36971 ft 541 kts 126°
2026-05-05 23:58 -14.16756 107.91855 36972 ft 541 kts 126°
2026-05-05 23:58 -14.20826 107.98353 36972 ft 541 kts 126°
2026-05-05 23:59 -14.24236 108.03804 36973 ft 541 kts 126°
2026-05-05 23:59 -14.28978 108.11388 36973 ft 542 kts 126°
2026-05-06 00:00 -14.33061 108.17919 36974 ft 542 kts 126°
2026-05-06 00:00 -14.37148 108.24453 36974 ft 542 kts 126°
2026-05-06 00:01 -14.40538 108.29892 36974 ft 542 kts 126°
2026-05-06 00:01 -14.44616 108.36444 36975 ft 543 kts 126°
2026-05-06 00:02 -14.48695 108.42998 36975 ft 543 kts 126°
2026-05-06 00:02 -14.52770 108.49586 36977 ft 543 kts 126°
2026-05-06 00:03 -14.56832 108.56182 36977 ft 544 kts 126°
2026-05-06 00:03 -14.60873 108.62754 36977 ft 544 kts 126°
2026-05-06 00:04 -14.64928 108.69353 36978 ft 545 kts 126°
2026-05-06 00:04 -14.68990 108.75967 36978 ft 545 kts 126°
2026-05-06 00:05 -14.75122 108.85916 36980 ft 546 kts 126°
2026-05-06 00:06 -14.79189 108.92539 36980 ft 546 kts 126°
2026-05-06 00:06 -14.83256 108.99171 36981 ft 546 kts 126°
2026-05-06 00:07 -14.87321 109.05807 36982 ft 546 kts 126°
2026-05-06 00:07 -14.91362 109.12408 36983 ft 546 kts 126°
2026-05-06 00:08 -14.95431 109.19061 36984 ft 547 kts 126°
2026-05-06 00:08 -14.99495 109.25714 36985 ft 547 kts 126°
2026-05-06 00:09 -15.03560 109.32371 36986 ft 547 kts 126°
2026-05-06 00:09 -15.07627 109.39038 36986 ft 548 kts 126°
2026-05-06 00:10 -15.11697 109.45717 36987 ft 548 kts 126°
2026-05-06 00:10 -15.15733 109.52345 36988 ft 548 kts 126°
2026-05-06 00:11 -15.19807 109.59040 36989 ft 549 kts 126°
2026-05-06 00:11 -15.23875 109.65732 36990 ft 549 kts 126°
2026-05-06 00:12 -15.27938 109.72423 36992 ft 549 kts 126°
2026-05-06 00:12 -15.32011 109.79134 36992 ft 549 kts 126°
2026-05-06 00:13 -15.36047 109.85778 37000 ft 549 kts 126°
2026-05-06 00:13 -15.40114 109.92485 37002 ft 549 kts 126°
2026-05-06 00:14 -15.44174 109.99202 37003 ft 549 kts 126°
2026-05-06 00:14 -15.48230 110.05920 37004 ft 550 kts 126°
2026-05-06 00:15 -15.52292 110.12645 37005 ft 551 kts 126°
2026-05-06 00:15 -15.56365 110.19343 37006 ft 550 kts 126°
2026-05-06 00:16 -15.60442 110.26060 37007 ft 550 kts 126°
2026-05-06 00:16 -15.64532 110.32811 37008 ft 550 kts 126°
2026-05-06 00:17 -15.68598 110.39529 37009 ft 550 kts 126°
2026-05-06 00:17 -15.72667 110.46226 37010 ft 550 kts 126°
2026-05-06 00:18 -15.76741 110.52938 37011 ft 550 kts 126°
2026-05-06 00:18 -15.80848 110.59721 37013 ft 550 kts 126°
2026-05-06 00:19 -15.84890 110.66409 37014 ft 550 kts 126°
2026-05-06 00:19 -15.88968 110.73162 37015 ft 550 kts 126°
2026-05-06 00:20 -15.93034 110.79903 37017 ft 551 kts 126°
2026-05-06 00:20 -15.97105 110.86659 37018 ft 551 kts 126°
2026-05-06 00:21 -16.01169 110.93409 37018 ft 551 kts 126°
2026-05-06 00:21 -16.05236 111.00170 37021 ft 553 kts 127°
2026-05-06 00:22 -16.09297 111.06926 37029 ft 554 kts 127°
2026-05-06 00:22 -16.13379 111.13725 37031 ft 554 kts 127°
2026-05-06 00:23 -16.17467 111.20540 37032 ft 554 kts 127°
2026-05-06 00:23 -16.21525 111.27312 37033 ft 554 kts 127°
2026-05-06 00:24 -16.25614 111.34142 37035 ft 554 kts 127°
2026-05-06 00:24 -16.29696 111.40966 37036 ft 554 kts 127°
2026-05-06 00:25 -16.33763 111.47771 37037 ft 554 kts 126°
2026-05-06 00:25 -16.37832 111.54588 37039 ft 553 kts 126°
2026-05-06 00:26 -16.41873 111.61363 37040 ft 553 kts 126°
2026-05-06 00:26 -16.45931 111.68173 37042 ft 553 kts 126°
2026-05-06 00:27 -16.49993 111.74997 37043 ft 554 kts 126°
2026-05-06 00:27 -16.54055 111.81827 37044 ft 554 kts 126°
2026-05-06 00:28 -16.58113 111.88657 37045 ft 554 kts 126°
2026-05-06 00:28 -16.62176 111.95483 37047 ft 554 kts 126°
2026-05-06 00:29 -16.66233 112.02325 37048 ft 555 kts 126°
2026-05-06 00:29 -16.70286 112.09177 37049 ft 555 kts 126°
2026-05-06 00:30 -16.74311 112.15986 37051 ft 555 kts 127°
2026-05-06 00:30 -16.78370 112.22854 37053 ft 555 kts 127°
2026-05-06 00:31 -16.82410 112.29703 37054 ft 555 kts 127°
2026-05-06 00:31 -16.86431 112.36534 37055 ft 556 kts 127°
2026-05-06 00:32 -16.90500 112.43454 37056 ft 556 kts 127°
2026-05-06 00:32 -16.94544 112.50342 37058 ft 557 kts 127°
2026-05-06 00:33 -16.98615 112.57231 37059 ft 557 kts 127°
2026-05-06 00:33 -17.02658 112.64098 37061 ft 556 kts 127°
2026-05-06 00:34 -17.06710 112.70997 37062 ft 557 kts 127°
2026-05-06 00:34 -17.10755 112.77895 37063 ft 557 kts 127°
2026-05-06 00:35 -17.14797 112.84795 37051 ft 557 kts 127°
2026-05-06 00:35 -17.18857 112.91733 37051 ft 557 kts 127°
2026-05-06 00:36 -17.22877 112.98612 37053 ft 557 kts 127°
2026-05-06 00:36 -17.26942 113.05573 37055 ft 558 kts 127°
2026-05-06 00:37 -17.30962 113.12465 37056 ft 558 kts 127°
2026-05-06 00:37 -17.35005 113.19402 37062 ft 558 kts 127°
2026-05-06 00:38 -17.38838 113.25988 37063 ft 558 kts 127°
2026-05-06 00:38 -17.42884 113.32945 37064 ft 558 kts 127°
2026-05-06 00:39 -17.46915 113.39885 37067 ft 559 kts 127°
2026-05-06 00:39 -17.50959 113.46852 37068 ft 559 kts 127°
2026-05-06 00:40 -17.55008 113.53837 37069 ft 560 kts 127°
2026-05-06 00:40 -17.59030 113.60782 37070 ft 560 kts 127°
2026-05-06 00:41 -17.63063 113.67754 37072 ft 560 kts 127°
2026-05-06 00:41 -17.67114 113.74764 37073 ft 562 kts 127°
2026-05-06 00:42 -17.71164 113.81779 37074 ft 562 kts 127°
2026-05-06 00:42 -17.75212 113.88800 37076 ft 562 kts 127°
2026-05-06 00:43 -17.79247 113.95804 37077 ft 562 kts 127°
2026-05-06 00:43 -17.83289 114.02828 37078 ft 563 kts 127°
2026-05-06 00:44 -17.87342 114.09880 37080 ft 563 kts 127°
2026-05-06 00:44 -17.91391 114.16932 37081 ft 563 kts 127°
2026-05-06 00:45 -17.94749 114.22786 37082 ft 563 kts 127°
2026-05-06 00:45 -17.99455 114.30999 37083 ft 563 kts 127°
2026-05-06 00:46 -18.02837 114.36906 37083 ft 563 kts 127°
2026-05-06 00:46 -18.06852 114.43928 37084 ft 564 kts 127°
2026-05-06 00:47 -18.10889 114.50996 37082 ft 564 kts 127°
2026-05-06 00:47 -18.14923 114.58068 37079 ft 564 kts 127°
2026-05-06 00:48 -18.18957 114.65146 37081 ft 565 kts 127°
2026-05-06 00:48 -18.22993 114.72235 37082 ft 565 kts 127°
2026-05-06 00:49 -18.27030 114.79334 37081 ft 564 kts 127°
2026-05-06 00:49 -18.31069 114.86445 37081 ft 564 kts 127°
2026-05-06 00:50 -18.35073 114.93502 37082 ft 565 kts 127°
2026-05-06 00:50 -18.39098 115.00604 37082 ft 565 kts 127°
2026-05-06 00:51 -18.43128 115.07723 37082 ft 565 kts 127°
2026-05-06 00:51 -18.47143 115.14823 37082 ft 565 kts 127°
2026-05-06 00:52 -18.51170 115.21953 37082 ft 566 kts 127°
2026-05-06 00:52 -18.55188 115.29075 37081 ft 565 kts 127°
2026-05-06 00:53 -18.59206 115.36203 37081 ft 565 kts 127°
2026-05-06 00:53 -18.63193 115.43286 37081 ft 565 kts 127°
2026-05-06 00:54 -18.67229 115.50465 37081 ft 565 kts 127°
2026-05-06 00:54 -18.71215 115.57560 37081 ft 565 kts 127°
2026-05-06 00:55 -18.75217 115.64695 37081 ft 565 kts 127°
2026-05-06 00:55 -18.79223 115.71845 37081 ft 565 kts 127°
2026-05-06 00:56 -18.83226 115.78997 37081 ft 566 kts 127°
2026-05-06 00:56 -18.87229 115.86157 37081 ft 566 kts 127°
2026-05-06 00:57 -18.91226 115.93315 37081 ft 566 kts 127°
2026-05-06 00:57 -18.95245 116.00521 37080 ft 567 kts 127°
2026-05-06 00:58 -18.99237 116.07660 37080 ft 568 kts 128°
2026-05-06 00:58 -19.03236 116.14851 37080 ft 568 kts 128°
2026-05-06 00:59 -19.07238 116.22065 37080 ft 569 kts 128°
2026-05-06 00:59 -19.11243 116.29289 37080 ft 569 kts 128°
2026-05-06 01:00 -19.15245 116.36515 37080 ft 569 kts 128°
2026-05-06 01:00 -19.19243 116.43759 37079 ft 569 kts 128°
2026-05-06 01:01 -19.23233 116.51001 37079 ft 569 kts 128°
2026-05-06 01:01 -19.27213 116.58237 37079 ft 570 kts 128°
2026-05-06 01:02 -19.31208 116.65489 37079 ft 570 kts 128°
2026-05-06 01:02 -19.35213 116.72731 37079 ft 570 kts 128°
2026-05-06 01:03 -19.39194 116.79963 37079 ft 570 kts 128°
2026-05-06 01:03 -19.43180 116.87223 37079 ft 570 kts 128°
2026-05-06 01:04 -19.47167 116.94494 37078 ft 571 kts 128°
2026-05-06 01:04 -19.50918 117.01343 37079 ft 571 kts 128°
2026-05-06 01:05 -19.54908 117.08640 37079 ft 571 kts 128°
2026-05-06 01:05 -19.58897 117.15942 37079 ft 571 kts 128°
2026-05-06 01:06 -19.62870 117.23223 37079 ft 572 kts 128°
2026-05-06 01:06 -19.66862 117.30550 37079 ft 572 kts 128°
2026-05-06 01:07 -19.70840 117.37860 37080 ft 572 kts 128°
2026-05-06 01:07 -19.74819 117.45180 37081 ft 573 kts 128°
2026-05-06 01:08 -19.78774 117.52466 37080 ft 572 kts 128°
2026-05-06 01:08 -19.82770 117.59835 37081 ft 572 kts 128°
2026-05-06 01:09 -19.86712 117.67115 37081 ft 572 kts 128°
2026-05-06 01:09 -19.90681 117.74454 37081 ft 573 kts 128°
2026-05-06 01:10 -19.94648 117.81798 37082 ft 573 kts 128°
2026-05-06 01:10 -19.98614 117.89150 37082 ft 573 kts 128°
2026-05-06 01:11 -20.02570 117.96491 37081 ft 573 kts 128°
2026-05-06 01:11 -20.06532 118.03855 37081 ft 573 kts 128°
2026-05-06 01:12 -20.10494 118.11227 37082 ft 573 kts 128°
2026-05-06 01:12 -20.14427 118.18555 37082 ft 573 kts 128°
2026-05-06 01:13 -20.18394 118.25955 37082 ft 573 kts 128°
2026-05-06 01:13 -20.22337 118.33314 37083 ft 573 kts 128°
2026-05-06 01:14 -20.28273 118.44399 37083 ft 575 kts 128°
2026-05-06 01:14 -20.32227 118.51826 37083 ft 575 kts 128°
2026-05-06 01:15 -20.36174 118.59241 37083 ft 576 kts 128°
2026-05-06 01:15 -20.40306 118.66484 37165 ft 570 kts 132°
2026-05-06 01:16 -20.42518 118.69975 37387 ft 568 kts 133°
2026-05-06 01:16 -20.44736 118.73452 37552 ft 568 kts 133°
2026-05-06 01:16 -20.49151 118.80447 37797 ft 569 kts 132°
2026-05-06 01:17 -20.51363 118.83975 37903 ft 569 kts 132°
2026-05-06 01:17 -20.53559 118.87486 38052 ft 569 kts 132°
2026-05-06 01:17 -20.55751 118.90996 38185 ft 569 kts 132°
2026-05-06 01:17 -20.57955 118.94514 38319 ft 568 kts 133°
2026-05-06 01:18 -20.60168 118.98031 38427 ft 568 kts 132°
2026-05-06 01:18 -20.62358 119.01525 38545 ft 568 kts 132°
2026-05-06 01:18 -20.66742 119.08540 38736 ft 568 kts 132°
2026-05-06 01:19 -20.71090 119.15515 38925 ft 567 kts 132°
2026-05-06 01:19 -20.75453 119.22525 39038 ft 568 kts 132°
2026-05-06 01:20 -20.79799 119.29518 39081 ft 569 kts 132°
2026-05-06 01:20 -20.84177 119.36571 39082 ft 569 kts 132°
2026-05-06 01:21 -20.88541 119.43610 39083 ft 569 kts 132°
2026-05-06 01:21 -20.92913 119.50672 39083 ft 569 kts 132°
2026-05-06 01:22 -20.97280 119.57734 39083 ft 569 kts 132°
2026-05-06 01:22 -21.01641 119.64795 39083 ft 569 kts 132°
2026-05-06 01:23 -21.06007 119.71871 39083 ft 570 kts 132°
2026-05-06 01:23 -21.10369 119.78953 39083 ft 570 kts 132°
2026-05-06 01:24 -21.14737 119.86051 39083 ft 570 kts 132°
2026-05-06 01:24 -21.19077 119.93114 39085 ft 570 kts 132°
2026-05-06 01:25 -21.23435 120.00215 39083 ft 571 kts 132°
2026-05-06 01:25 -21.27811 120.07353 39084 ft 573 kts 132°
2026-05-06 01:26 -21.32191 120.14509 39084 ft 574 kts 132°
2026-05-06 01:26 -21.36571 120.21673 39084 ft 574 kts 132°
2026-05-06 01:27 -21.40950 120.28844 39084 ft 574 kts 132°
2026-05-06 01:27 -21.45304 120.35984 39084 ft 574 kts 132°
2026-05-06 01:28 -21.49698 120.43199 39085 ft 574 kts 132°
2026-05-06 01:28 -21.54053 120.50359 39085 ft 574 kts 132°
2026-05-06 01:29 -21.58417 120.57544 39085 ft 575 kts 132°
2026-05-06 01:29 -21.62788 120.64750 39085 ft 575 kts 132°
2026-05-06 01:30 -21.67145 120.71942 39086 ft 574 kts 131°
2026-05-06 01:30 -21.71508 120.79153 39086 ft 575 kts 131°
2026-05-06 01:31 -21.75878 120.86385 39087 ft 576 kts 131°
2026-05-06 01:31 -21.80242 120.93617 39087 ft 576 kts 131°
2026-05-06 01:32 -21.84575 121.00806 39088 ft 576 kts 131°
2026-05-06 01:32 -21.88941 121.08062 39088 ft 577 kts 131°
2026-05-06 01:33 -21.93310 121.15332 39089 ft 577 kts 131°
2026-05-06 01:33 -21.97668 121.22592 39089 ft 578 kts 131°
2026-05-06 01:34 -22.02033 121.29873 39090 ft 578 kts 131°
2026-05-06 01:34 -22.06392 121.37156 39091 ft 577 kts 130°
2026-05-06 01:35 -22.10747 121.44441 39092 ft 579 kts 130°
2026-05-06 01:35 -22.15088 121.51714 39082 ft 579 kts 130°
2026-05-06 01:36 -22.19453 121.59011 39082 ft 579 kts 131°
2026-05-06 01:36 -22.23811 121.66326 39083 ft 579 kts 130°
2026-05-06 01:37 -22.28168 121.73670 39083 ft 580 kts 130°
2026-05-06 01:37 -22.32533 121.81035 39084 ft 581 kts 130°
2026-05-06 01:38 -22.36894 121.88397 39085 ft 581 kts 130°
2026-05-06 01:38 -22.41238 121.95757 39086 ft 581 kts 130°
2026-05-06 01:39 -22.45545 122.03073 39118 ft 580 kts 130°
2026-05-06 01:39 -22.49876 122.10442 39123 ft 580 kts 130°
2026-05-06 01:40 -22.54198 122.17796 39125 ft 579 kts 130°
2026-05-06 01:40 -22.58540 122.25136 39128 ft 578 kts 130°
2026-05-06 01:41 -22.66664 122.38966 39133 ft 577 kts 130°
2026-05-06 01:42 -22.70916 122.46227 39135 ft 576 kts 129°
2026-05-06 01:42 -22.75230 122.53606 39137 ft 576 kts 129°
2026-05-06 01:43 -22.79494 122.60910 39140 ft 576 kts 129°
2026-05-06 01:43 -22.83795 122.68288 39143 ft 576 kts 129°
2026-05-06 01:44 -22.88051 122.75598 39145 ft 575 kts 129°
2026-05-06 01:44 -22.92334 122.82966 39147 ft 575 kts 129°
2026-05-06 01:45 -22.96595 122.90306 39150 ft 574 kts 129°
2026-05-06 01:45 -23.00859 122.97662 39153 ft 574 kts 129°
2026-05-06 01:46 -23.05100 123.04989 39155 ft 574 kts 129°
2026-05-06 01:46 -23.09335 123.12316 39129 ft 573 kts 128°
2026-05-06 01:47 -23.13582 123.19673 39131 ft 572 kts 128°
2026-05-06 01:47 -23.17808 123.27006 39134 ft 572 kts 128°
2026-05-06 01:48 -23.21991 123.34273 39136 ft 572 kts 128°
2026-05-06 01:48 -23.26212 123.41619 39139 ft 571 kts 128°
2026-05-06 01:49 -23.30423 123.48955 39142 ft 570 kts 128°
2026-05-06 01:49 -23.34613 123.56268 39145 ft 570 kts 128°
2026-05-06 01:50 -23.38816 123.63576 39148 ft 569 kts 128°
2026-05-06 01:50 -23.42976 123.70866 39151 ft 568 kts 128°
2026-05-06 01:51 -23.47137 123.78176 39154 ft 568 kts 128°
2026-05-06 01:51 -23.51290 123.85471 39161 ft 567 kts 128°
2026-05-06 01:52 -23.55440 123.92772 39214 ft 566 kts 127°
2026-05-06 01:52 -23.59583 124.00082 39220 ft 566 kts 127°
2026-05-06 01:53 -23.63703 124.07367 39223 ft 566 kts 127°
2026-05-06 01:53 -23.67843 124.14703 39226 ft 566 kts 127°
2026-05-06 01:54 -23.71984 124.22013 39228 ft 566 kts 127°
2026-05-06 01:54 -23.76105 124.29270 39231 ft 566 kts 127°
2026-05-06 01:55 -23.80241 124.36589 39227 ft 566 kts 127°
2026-05-06 01:55 -23.84371 124.43919 39227 ft 566 kts 127°
2026-05-06 01:56 -23.88500 124.51260 39230 ft 567 kts 127°
2026-05-06 01:56 -23.92625 124.58606 39233 ft 567 kts 127°
2026-05-06 01:57 -23.96701 124.65877 39236 ft 568 kts 127°
2026-05-06 01:57 -24.00854 124.73297 39241 ft 568 kts 127°
2026-05-06 01:58 -24.04962 124.80644 39240 ft 561 kts 126°
2026-05-06 01:58 -24.09028 124.87930 39274 ft 561 kts 126°
2026-05-06 01:59 -24.13101 124.95239 39291 ft 562 kts 126°
2026-05-06 01:59 -24.17137 125.02493 39295 ft 562 kts 126°
2026-05-06 02:00 -24.21239 125.09876 39297 ft 562 kts 126°
2026-05-06 02:00 -24.25270 125.17141 39299 ft 562 kts 126°
2026-05-06 02:01 -24.29338 125.24485 39301 ft 563 kts 126°
2026-05-06 02:01 -24.33384 125.31798 39304 ft 563 kts 126°
2026-05-06 02:02 -24.37461 125.39181 39306 ft 563 kts 126°
2026-05-06 02:02 -24.41480 125.46469 39309 ft 563 kts 126°
2026-05-06 02:03 -24.45535 125.53834 39311 ft 564 kts 126°
2026-05-06 02:03 -24.49588 125.61206 39313 ft 564 kts 126°
2026-05-06 02:04 -24.53645 125.68596 39315 ft 564 kts 126°
2026-05-06 02:04 -24.57697 125.75988 39317 ft 563 kts 125°
2026-05-06 02:05 -24.61725 125.83349 39319 ft 563 kts 125°
2026-05-06 02:05 -24.65742 125.90700 39321 ft 563 kts 125°
2026-05-06 02:06 -24.69770 125.98084 39324 ft 562 kts 125°
2026-05-06 02:06 -24.73794 126.05469 39326 ft 561 kts 125°
2026-05-06 02:07 -24.77785 126.12807 39328 ft 561 kts 125°
2026-05-06 02:07 -24.81787 126.20177 39329 ft 560 kts 125°
2026-05-06 02:08 -24.85781 126.27543 39331 ft 560 kts 125°
2026-05-06 02:08 -24.89774 126.34919 39333 ft 559 kts 124°
2026-05-06 02:09 -24.93745 126.42264 39335 ft 558 kts 124°
2026-05-06 02:09 -24.97689 126.49573 39336 ft 557 kts 124°
2026-05-06 02:10 -25.01645 126.56914 39339 ft 556 kts 124°
2026-05-06 02:10 -25.05595 126.64254 39340 ft 555 kts 124°
2026-05-06 02:11 -25.09531 126.71581 39342 ft 555 kts 124°
2026-05-06 02:11 -25.13471 126.78927 39343 ft 554 kts 124°
2026-05-06 02:12 -25.16736 126.85023 39345 ft 554 kts 124°
2026-05-06 02:12 -25.21290 126.93539 39346 ft 553 kts 124°
2026-05-06 02:13 -25.25193 127.00851 39348 ft 553 kts 124°
2026-05-06 02:13 -25.28435 127.06932 39349 ft 552 kts 124°
2026-05-06 02:14 -25.32329 127.14246 39350 ft 552 kts 124°
2026-05-06 02:14 -25.36847 127.22749 39352 ft 551 kts 123°
2026-05-06 02:15 -25.40060 127.28805 39353 ft 550 kts 123°
2026-05-06 02:15 -25.43945 127.36138 39354 ft 549 kts 123°
2026-05-06 02:16 -25.47809 127.43441 39355 ft 548 kts 123°
2026-05-06 02:16 -25.51644 127.50702 39356 ft 547 kts 123°
2026-05-06 02:17 -25.55482 127.57979 39358 ft 545 kts 123°
2026-05-06 02:17 -25.59305 127.65241 39359 ft 545 kts 123°
2026-05-06 02:18 -25.63116 127.72491 39360 ft 544 kts 123°
2026-05-06 02:18 -25.66902 127.79705 39361 ft 543 kts 123°
2026-05-06 02:19 -25.70685 127.86924 39362 ft 542 kts 123°
2026-05-06 02:19 -25.74461 127.94141 39363 ft 541 kts 123°
2026-05-06 02:20 -25.80117 128.04974 39364 ft 540 kts 123°
2026-05-06 02:21 -25.83885 128.12203 39365 ft 541 kts 123°
2026-05-06 02:21 -25.87656 128.19452 39342 ft 541 kts 123°
2026-05-06 02:22 -25.91414 128.26685 39334 ft 541 kts 123°
2026-05-06 02:22 -25.95172 128.33932 39334 ft 541 kts 123°
2026-05-06 02:23 -25.98936 128.41201 39335 ft 542 kts 122°
2026-05-06 02:23 -26.02693 128.48469 39336 ft 541 kts 122°
2026-05-06 02:24 -26.06433 128.55715 39337 ft 539 kts 122°
2026-05-06 02:24 -26.10165 128.62956 39338 ft 540 kts 122°
2026-05-06 02:25 -26.13914 128.70198 39339 ft 540 kts 122°
2026-05-06 02:25 -26.17617 128.77419 39340 ft 541 kts 122°
2026-05-06 02:26 -26.21344 128.84705 39341 ft 541 kts 122°
2026-05-06 02:26 -26.25075 128.92004 39342 ft 541 kts 122°
2026-05-06 02:27 -26.28794 128.99289 39342 ft 542 kts 122°
2026-05-06 02:27 -26.32505 129.06584 39343 ft 543 kts 122°
2026-05-06 02:28 -26.36251 129.13970 39344 ft 543 kts 122°
2026-05-06 02:28 -26.39962 129.21302 39344 ft 543 kts 122°
2026-05-06 02:29 -26.43646 129.28586 39345 ft 543 kts 122°
2026-05-06 02:29 -26.47391 129.35916 39346 ft 544 kts 122°
2026-05-06 02:30 -26.51125 129.43274 39346 ft 544 kts 122°
2026-05-06 02:30 -26.54853 129.50650 39347 ft 544 kts 122°
2026-05-06 02:31 -26.58567 129.58017 39348 ft 544 kts 122°
2026-05-06 02:31 -26.62282 129.65399 39348 ft 545 kts 122°
2026-05-06 02:32 -26.65994 129.72787 39348 ft 545 kts 122°
2026-05-06 02:32 -26.69675 129.80129 39349 ft 545 kts 121°
2026-05-06 02:33 -26.73370 129.87509 39349 ft 544 kts 121°
2026-05-06 02:33 -26.74607 129.89982 39349 ft 544 kts 121°
2026-05-06 02:34 -26.80758 130.02303 39349 ft 545 kts 121°
2026-05-06 02:34 -26.84458 130.09731 39356 ft 546 kts 121°
2026-05-06 02:35 -26.88171 130.17198 39357 ft 546 kts 121°
2026-05-06 02:35 -26.91866 130.24642 39357 ft 546 kts 121°
2026-05-06 02:36 -26.95524 130.32024 39357 ft 545 kts 121°
2026-05-06 02:36 -26.99214 130.39482 39357 ft 545 kts 121°
2026-05-06 02:37 -27.02870 130.46885 39356 ft 545 kts 121°
2026-05-06 02:37 -27.06564 130.54377 39356 ft 545 kts 121°
2026-05-06 02:38 -27.10200 130.61765 39356 ft 545 kts 121°
2026-05-06 02:38 -27.13873 130.69241 39356 ft 545 kts 121°
2026-05-06 02:39 -27.17533 130.76704 39356 ft 545 kts 121°
2026-05-06 02:39 -27.21197 130.84187 39356 ft 545 kts 121°
2026-05-06 02:40 -27.24826 130.91612 39356 ft 545 kts 121°
2026-05-06 02:40 -27.28475 130.99091 39356 ft 545 kts 121°
2026-05-06 02:41 -27.32116 131.06567 39356 ft 544 kts 121°
2026-05-06 02:41 -27.35746 131.14033 39355 ft 544 kts 121°
2026-05-06 02:42 -27.39377 131.21513 39355 ft 544 kts 121°
2026-05-06 02:42 -27.42996 131.28983 39355 ft 544 kts 121°
2026-05-06 02:43 -27.46605 131.36444 39354 ft 543 kts 121°
2026-05-06 02:43 -27.50203 131.43897 39354 ft 543 kts 120°
2026-05-06 02:44 -27.53813 131.51387 39354 ft 542 kts 120°
2026-05-06 02:44 -27.57423 131.58864 39354 ft 542 kts 121°
2026-05-06 02:45 -27.60966 131.66217 39353 ft 541 kts 120°
2026-05-06 02:45 -27.64586 131.73789 39353 ft 540 kts 120°
2026-05-06 02:46 -27.68148 131.81252 39353 ft 539 kts 120°
2026-05-06 02:46 -27.71705 131.88707 39353 ft 539 kts 120°
2026-05-06 02:47 -27.75236 131.96116 39353 ft 539 kts 120°
2026-05-06 02:47 -27.78769 132.03561 39352 ft 538 kts 120°
2026-05-06 02:48 -27.82299 132.11017 39352 ft 538 kts 120°
2026-05-06 02:48 -27.85823 132.18476 39352 ft 538 kts 120°
2026-05-06 02:49 -27.89366 132.25943 39352 ft 539 kts 120°
2026-05-06 02:49 -27.92925 132.33410 39351 ft 539 kts 120°
2026-05-06 02:50 -27.96464 132.40890 39351 ft 540 kts 120°
2026-05-06 02:50 -27.99982 132.48350 39351 ft 540 kts 120°
2026-05-06 02:51 -28.03513 132.55856 39351 ft 538 kts 120°
2026-05-06 02:51 -28.07027 132.63340 39350 ft 538 kts 120°
2026-05-06 02:52 -28.10535 132.70826 39342 ft 539 kts 120°
2026-05-06 02:52 -28.14052 132.78344 39341 ft 539 kts 120°
2026-05-06 02:53 -28.17563 132.85865 39341 ft 539 kts 120°
2026-05-06 02:53 -28.21040 132.93325 39341 ft 539 kts 120°
2026-05-06 02:54 -28.24555 133.00881 39341 ft 539 kts 120°
2026-05-06 02:54 -28.28033 133.08370 39341 ft 539 kts 120°
2026-05-06 02:55 -28.31526 133.15907 39341 ft 539 kts 120°
2026-05-06 02:55 -28.35010 133.23438 39341 ft 539 kts 120°
2026-05-06 02:56 -28.38493 133.30979 39341 ft 539 kts 119°
2026-05-06 02:56 -28.41970 133.38523 39341 ft 539 kts 119°
2026-05-06 02:57 -28.45429 133.46040 39341 ft 539 kts 119°
2026-05-06 02:57 -28.48900 133.53599 39341 ft 539 kts 119°
2026-05-06 02:58 -28.51789 133.59899 39341 ft 539 kts 119°
2026-05-06 02:58 -28.55267 133.67500 39341 ft 539 kts 119°
2026-05-06 02:59 -28.58705 133.75025 39341 ft 539 kts 119°
2026-05-06 02:59 -28.62163 133.82611 39342 ft 539 kts 119°
2026-05-06 03:00 -28.65618 133.90201 39341 ft 540 kts 119°
2026-05-06 03:00 -28.69068 133.97797 39335 ft 540 kts 119°
2026-05-06 03:01 -28.72513 134.05395 39335 ft 541 kts 119°
2026-05-06 03:01 -28.75963 134.13019 39335 ft 541 kts 119°
2026-05-06 03:02 -28.79414 134.20659 39335 ft 541 kts 119°
2026-05-06 03:02 -28.82827 134.28177 39336 ft 542 kts 119°
2026-05-06 03:03 -28.86322 134.35950 39336 ft 542 kts 119°
2026-05-06 03:03 -28.89735 134.43572 39336 ft 542 kts 119°
2026-05-06 03:04 -28.93164 134.51242 39336 ft 542 kts 119°
2026-05-06 03:04 -28.96597 134.58922 39336 ft 543 kts 119°
2026-05-06 03:05 -29.00028 134.66627 39336 ft 544 kts 119°
2026-05-06 03:05 -29.03456 134.74349 39337 ft 544 kts 118°
2026-05-06 03:06 -29.06864 134.82045 39337 ft 544 kts 118°
2026-05-06 03:06 -29.10282 134.89780 39338 ft 544 kts 118°
2026-05-06 03:07 -29.13724 134.97481 39338 ft 544 kts 119°
2026-05-06 03:07 -29.17127 135.05140 39338 ft 544 kts 118°
2026-05-06 03:08 -29.20554 135.12897 39338 ft 544 kts 118°
2026-05-06 03:08 -29.23966 135.20641 39339 ft 545 kts 118°
2026-05-06 03:09 -29.27375 135.28395 39339 ft 545 kts 118°
2026-05-06 03:09 -29.30786 135.36170 39339 ft 546 kts 118°
2026-05-06 03:10 -29.34166 135.43892 39339 ft 546 kts 118°
2026-05-06 03:10 -29.37574 135.51692 39340 ft 547 kts 118°
2026-05-06 03:11 -29.40971 135.59482 39341 ft 547 kts 118°
2026-05-06 03:11 -29.44372 135.67297 39341 ft 547 kts 118°
2026-05-06 03:12 -29.47773 135.75128 39341 ft 548 kts 118°
2026-05-06 03:12 -29.51178 135.82983 39341 ft 548 kts 118°
2026-05-06 03:13 -29.54555 135.90788 39342 ft 548 kts 118°
2026-05-06 03:13 -29.57957 135.98608 39342 ft 548 kts 118°
2026-05-06 03:14 -29.61349 136.06501 39343 ft 549 kts 118°
2026-05-06 03:14 -29.64711 136.14348 39343 ft 550 kts 118°
2026-05-06 03:15 -29.68110 136.22282 39343 ft 550 kts 118°
2026-05-06 03:15 -29.71474 136.30190 39343 ft 550 kts 117°
2026-05-06 03:16 -29.74800 136.38052 39344 ft 550 kts 117°
2026-05-06 03:16 -29.78140 136.45973 39344 ft 550 kts 117°
2026-05-06 03:17 -29.81486 136.53925 39345 ft 551 kts 117°
2026-05-06 03:17 -29.84837 136.61870 39345 ft 551 kts 118°
2026-05-06 03:18 -29.88196 136.69768 39345 ft 551 kts 117°
2026-05-06 03:18 -29.91553 136.77730 39345 ft 552 kts 117°
2026-05-06 03:19 -29.94895 136.85695 39341 ft 553 kts 117°
2026-05-06 03:19 -29.98244 136.93696 39339 ft 553 kts 117°
2026-05-06 03:20 -30.03262 137.05720 39340 ft 554 kts 117°
2026-05-06 03:20 -30.06594 137.13725 39340 ft 554 kts 117°
2026-05-06 03:21 -30.09939 137.21779 39340 ft 555 kts 117°
2026-05-06 03:21 -30.13270 137.29818 39337 ft 556 kts 117°
2026-05-06 03:22 -30.16606 137.37883 39312 ft 555 kts 117°
2026-05-06 03:22 -30.19908 137.45887 39312 ft 555 kts 117°
2026-05-06 03:23 -30.23228 137.53950 39312 ft 555 kts 117°
2026-05-06 03:23 -30.26542 137.62015 39312 ft 555 kts 117°
2026-05-06 03:24 -30.29858 137.70103 39312 ft 556 kts 117°
2026-05-06 03:24 -30.33174 137.78208 39311 ft 557 kts 117°
2026-05-06 03:25 -30.36476 137.86298 39311 ft 557 kts 116°
2026-05-06 03:25 -30.39788 137.94430 39311 ft 557 kts 116°
2026-05-06 03:26 -30.43097 138.02573 39310 ft 556 kts 116°
2026-05-06 03:26 -30.46388 138.10684 39309 ft 556 kts 117°
2026-05-06 03:27 -30.49671 138.18733 39309 ft 556 kts 116°
2026-05-06 03:27 -30.52938 138.26846 39308 ft 556 kts 116°
2026-05-06 03:28 -30.56207 138.34992 39308 ft 556 kts 116°
2026-05-06 03:28 -30.59476 138.43158 39306 ft 556 kts 115°
2026-05-06 03:29 -30.62251 138.51531 39307 ft 557 kts 110°
2026-05-06 03:29 -30.64761 138.60046 39306 ft 557 kts 109°
2026-05-06 03:30 -30.67287 138.68515 39305 ft 556 kts 110°
2026-05-06 03:30 -30.69828 138.76992 39304 ft 556 kts 110°
2026-05-06 03:31 -30.72393 138.85463 39303 ft 556 kts 110°
2026-05-06 03:31 -30.74982 138.93953 39302 ft 556 kts 110°
2026-05-06 03:32 -30.77543 139.02440 39300 ft 556 kts 110°
2026-05-06 03:32 -30.80092 139.10933 39299 ft 556 kts 110°
2026-05-06 03:33 -30.82637 139.19442 39299 ft 556 kts 109°
2026-05-06 03:33 -30.85160 139.27903 39297 ft 556 kts 109°
2026-05-06 03:34 -30.87692 139.36416 39296 ft 556 kts 109°
2026-05-06 03:34 -30.90222 139.44946 39294 ft 556 kts 109°
2026-05-06 03:35 -30.92747 139.53485 39294 ft 556 kts 109°
2026-05-06 03:35 -30.95260 139.62005 39292 ft 556 kts 109°
2026-05-06 03:36 -30.97776 139.70556 39291 ft 556 kts 109°
2026-05-06 03:36 -31.00268 139.79053 39289 ft 556 kts 109°
2026-05-06 03:37 -31.02764 139.87584 39288 ft 556 kts 109°
2026-05-06 03:37 -31.05258 139.96136 39286 ft 556 kts 109°
2026-05-06 03:38 -31.07750 140.04701 39285 ft 557 kts 109°
2026-05-06 03:38 -31.09811 140.11805 39283 ft 556 kts 109°
2026-05-06 03:39 -31.12698 140.21783 39281 ft 557 kts 109°
2026-05-06 03:39 -31.15164 140.30333 39280 ft 557 kts 108°
2026-05-06 03:40 -31.17232 140.37520 39276 ft 557 kts 108°
2026-05-06 03:40 -31.19695 140.46101 39275 ft 556 kts 108°
2026-05-06 03:41 -31.22133 140.54622 39274 ft 557 kts 108°
2026-05-06 03:41 -31.24584 140.63211 39273 ft 557 kts 108°
2026-05-06 03:42 -31.27053 140.71789 39271 ft 557 kts 108°
2026-05-06 03:42 -31.29467 140.80316 39270 ft 557 kts 108°
2026-05-06 03:43 -31.31912 140.89001 39269 ft 557 kts 108°
2026-05-06 03:43 -31.34316 140.97551 39267 ft 557 kts 108°
2026-05-06 03:44 -31.36727 141.06166 39323 ft 557 kts 108°
2026-05-06 03:44 -31.37922 141.10466 39454 ft 558 kts 108°
2026-05-06 03:44 -31.39121 141.14795 39601 ft 558 kts 108°
2026-05-06 03:45 -31.40315 141.19112 39711 ft 559 kts 108°
2026-05-06 03:45 -31.41506 141.23430 39845 ft 558 kts 108°
2026-05-06 03:45 -31.43899 141.32126 40061 ft 559 kts 108°
2026-05-06 03:46 -31.45092 141.36469 40176 ft 559 kts 107°
2026-05-06 03:46 -31.46292 141.40806 40282 ft 560 kts 108°
2026-05-06 03:46 -31.47501 141.45101 40391 ft 560 kts 108°
2026-05-06 03:46 -31.48708 141.49427 40493 ft 560 kts 108°
2026-05-06 03:47 -31.51125 141.58172 40685 ft 560 kts 107°
2026-05-06 03:47 -31.53494 141.66803 40859 ft 560 kts 107°
2026-05-06 03:48 -31.55873 141.75505 41018 ft 560 kts 107°
2026-05-06 03:48 -31.58242 141.84200 41222 ft 559 kts 107°
2026-05-06 03:49 -31.60597 141.92868 41239 ft 560 kts 107°
2026-05-06 03:49 -31.62955 142.01573 41237 ft 560 kts 107°
2026-05-06 03:50 -31.65313 142.10305 41236 ft 561 kts 107°
2026-05-06 03:50 -31.67662 142.19033 41234 ft 561 kts 107°
2026-05-06 03:51 -31.70011 142.27784 41232 ft 561 kts 107°
2026-05-06 03:51 -31.72346 142.36513 41230 ft 561 kts 107°
2026-05-06 03:52 -31.74683 142.45274 41228 ft 561 kts 107°
2026-05-06 03:52 -31.77009 142.54023 41226 ft 562 kts 107°
2026-05-06 03:53 -31.79324 142.62752 41224 ft 562 kts 107°
2026-05-06 03:53 -31.81644 142.71531 41222 ft 563 kts 107°
2026-05-06 03:54 -31.83975 142.80380 41220 ft 563 kts 107°
2026-05-06 03:54 -31.86272 142.89124 41219 ft 564 kts 107°
2026-05-06 03:55 -31.88583 142.97950 41216 ft 565 kts 107°
2026-05-06 03:55 -31.90897 143.06816 41214 ft 565 kts 106°
2026-05-06 03:56 -31.93201 143.15663 41212 ft 566 kts 107°
2026-05-06 03:56 -31.95533 143.24546 41210 ft 567 kts 106°
2026-05-06 03:57 -31.97800 143.33353 41208 ft 568 kts 106°
2026-05-06 03:57 -32.00093 143.42302 41206 ft 568 kts 106°
2026-05-06 03:58 -32.02380 143.51228 41204 ft 567 kts 106°
2026-05-06 03:58 -32.04647 143.60121 41201 ft 567 kts 106°
2026-05-06 03:59 -32.06902 143.69037 41200 ft 568 kts 106°
2026-05-06 03:59 -32.09150 143.77964 41198 ft 568 kts 105°
2026-05-06 04:00 -32.11376 143.86834 41196 ft 568 kts 105°
2026-05-06 04:00 -32.13646 143.95761 41194 ft 568 kts 106°
2026-05-06 04:01 -32.15919 144.04684 41192 ft 568 kts 106°
2026-05-06 04:01 -32.18170 144.13624 41190 ft 568 kts 105°
2026-05-06 04:02 -32.20410 144.22575 41188 ft 568 kts 105°
2026-05-06 04:02 -32.22639 144.31521 41186 ft 568 kts 105°
2026-05-06 04:03 -32.24859 144.40466 41184 ft 568 kts 105°
2026-05-06 04:03 -32.27081 144.49449 41182 ft 568 kts 105°
2026-05-06 04:04 -32.29290 144.58407 41145 ft 568 kts 105°
2026-05-06 04:04 -32.31478 144.67311 41142 ft 568 kts 105°
2026-05-06 04:05 -32.33672 144.76268 41146 ft 568 kts 105°
2026-05-06 04:05 -32.35865 144.85254 41151 ft 568 kts 105°
2026-05-06 04:06 -32.38042 144.94201 41154 ft 568 kts 105°
2026-05-06 04:06 -32.40218 145.03178 41153 ft 568 kts 105°
2026-05-06 04:07 -32.42392 145.12176 41152 ft 568 kts 105°
2026-05-06 04:07 -32.44557 145.21167 41152 ft 568 kts 105°
2026-05-06 04:08 -32.46719 145.30180 41151 ft 568 kts 105°
2026-05-06 04:08 -32.48872 145.39183 41150 ft 569 kts 105°
2026-05-06 04:09 -32.51028 145.48227 41149 ft 569 kts 105°
2026-05-06 04:09 -32.53158 145.57196 41149 ft 570 kts 105°
2026-05-06 04:10 -32.55297 145.66239 41149 ft 570 kts 105°
2026-05-06 04:10 -32.57435 145.75303 41148 ft 570 kts 105°
2026-05-06 04:11 -32.59564 145.84364 41147 ft 570 kts 105°
2026-05-06 04:11 -32.61689 145.93439 41147 ft 570 kts 104°
2026-05-06 04:12 -32.63791 146.02445 41146 ft 570 kts 104°
2026-05-06 04:12 -32.65900 146.11519 41146 ft 570 kts 104°
2026-05-06 04:13 -32.68004 146.20599 41146 ft 570 kts 104°
2026-05-06 04:13 -32.70101 146.29683 41146 ft 570 kts 104°
2026-05-06 04:14 -32.72181 146.38724 41145 ft 570 kts 104°
2026-05-06 04:14 -32.74263 146.47810 41145 ft 570 kts 104°
2026-05-06 04:15 -32.76329 146.56854 41145 ft 570 kts 104°
2026-05-06 04:15 -32.78389 146.65908 41144 ft 570 kts 104°
2026-05-06 04:16 -32.80447 146.74985 41144 ft 570 kts 104°
2026-05-06 04:16 -32.82523 146.84178 41144 ft 569 kts 104°
2026-05-06 04:17 -32.84560 146.93229 41144 ft 569 kts 104°
2026-05-06 04:17 -32.86615 147.02391 41144 ft 569 kts 104°
2026-05-06 04:18 -32.88648 147.11491 41143 ft 569 kts 104°
2026-05-06 04:18 -32.90660 147.20532 41143 ft 569 kts 104°
2026-05-06 04:19 -32.92682 147.29650 41143 ft 569 kts 104°
2026-05-06 04:19 -32.94699 147.38781 41143 ft 569 kts 104°
2026-05-06 04:20 -32.96704 147.47891 41143 ft 569 kts 103°
2026-05-06 04:20 -32.98693 147.56959 41142 ft 569 kts 103°
2026-05-06 04:21 -33.00697 147.66133 41142 ft 569 kts 103°
2026-05-06 04:21 -33.02677 147.75232 41142 ft 569 kts 103°
2026-05-06 04:22 -33.04662 147.84386 41142 ft 569 kts 103°
2026-05-06 04:23 -33.07315 147.96533 41142 ft 568 kts 103°
2026-05-06 04:23 -33.09269 148.05677 41142 ft 569 kts 103°
2026-05-06 04:24 -33.11213 148.14818 41142 ft 569 kts 103°